GFSNE_con_mucape_057.txt.gz
CAPE
85 86 11 21 41 24 0 18 16 4 0 0 0 0 0 0 0 0 0 0 0 0 0 0 35 60 74 75 28 9 0 0 0 0 0 0 5 16
67 39 49 21 10 4 5 4 13 6 0 0 0 0 0 0 0 0 0 0 0 0 0 0 1 22 49 54 61 35 3 0 0 0 0 0 4 14
28 65 30 38 3 7 5 8 2 0 0 0 0 0 0 0 0 0 0 0 0 0 0 0 0 3 8 6 43 66 80 30 0 0 0 0 3 9
36 17 21 28 1 3 3 0 18 4 0 0 0 0 0 0 0 0 0 0 0 0 0 0 8 11 11 0 4 4 2 78 29 9 0 0 0 5
18 44 28 7 0 0 2 1 0 0 0 0 0 0 0 0 0 0 0 0 0 0 0 0 0 0 0 0 0 9 4 5 14 11 8 0 4 8
29 24 18 10 2 0 0 0 1 0 0 0 0 0 0 0 0 0 0 0 0 0 0 0 0 0 1 2 8 11 4 5 0 51 16 1 18 42
25 19 7 0 1 0 0 0 2 0 0 0 0 0 0 0 0 0 0 0 0 0 0 0 0 0 0 3 4 1 0 0 0 48 34 36 32 19
2 8 2 12 5 5 1 3 0 0 0 0 0 0 0 0 0 0 0 0 0 0 0 0 0 5 0 0 0 8 9 3 0 31 24 0 0 18
7 5 8 9 0 1 1 0 0 0 0 0 0 0 0 0 0 0 0 0 0 0 0 0 0 0 0 0 0 0 0 0 0 0 0 0 0 0
7 8 6 4 0 0 0 0 0 0 0 0 0 0 0 0 0 0 0 0 0 0 0 0 0 0 0 0 1 0 1 0 0 0 0 0 0 0
4 4 0 0 0 0 0 0 0 0 0 0 0 0 0 0 0 0 0 0 0 0 0 0 0 1 0 0 0 0 0 0 0 0 0 0 0 0
0 0 0 0 0 0 0 0 0 0 0 0 0 0 0 0 0 0 0 0 0 0 0 0 0 5 0 0 0 0 0 0 0 0 0 0 0 0
0 0 0 0 0 0 0 0 0 0 0 0 0 0 0 0 0 0 0 0 0 0 0 0 0 0 0 0 0 0 0 0 0 0 0 0 0 0
0 0 0 0 0 0 0 0 0 0 0 0 0 0 0 0 0 0 0 0 0 0 0 7 0 0 1 3 0 0 0 0 0 0 0 0 0 0
0 0 0 0 0 0 0 0 0 0 0 0 0 0 0 0 0 0 0 0 0 0 0 0 0 0 0 0 0 0 0 0 0 0 0 0 0 0
0 0 0 0 0 0 0 0 0 0 0 0 0 0 0 0 0 0 0 0 0 0 0 0 0 0 0 0 0 0 0 0 0 0 0 0 0 0
0 0 0 0 0 0 0 0 0 0 0 0 0 0 0 0 0 0 0 0 0 0 0 0 0 0 0 0 0 0 0 0 0 0 0 0 0 0
0 0 0 0 0 0 0 0 0 0 0 0 0 0 0 0 0 0 0 0 0 0 1 0 0 0 0 0 0 0 0 0 0 0 0 0 0 0
0 0 0 0 0 0 0 0 0 0 0 0 0 0 0 0 0 0 0 0 0 0 0 5 0 0 0 1 0 0 0 0 0 0 0 0 0 0
0 0 0 0 0 0 0 0 0 0 0 0 0 0 0 0 0 0 0 0 0 0 0 2 0 2 1 0 0 0 0 0 0 0 0 0 0 0
0 0 0 0 0 0 0 0 0 0 0 0 0 0 0 0 0 0 0 0 0 0 0 1 0 0 3 0 0 0 0 0 0 0 0 0 0 0
0 0 0 0 0 0 0 0 0 0 0 0 0 0 0 0 0 0 0 0 0 0 0 0 0 0 0 0 0 0 0 0 0 0 0 0 0 0
0 0 0 0 0 0 0 0 0 0 0 0 0 0 0 0 0 0 0 0 0 0 0 0 0 0 0 0 0 0 0 0 0 0 0 0 0 0

GFSNE_con_mucape_063.txt.gz
CAPE
28 60 44 22 46 54 47 44 33 3 6 1 2 2 1 1 5 4 3 0 0 0 0 0 0 0 0 0 18 43 64 123 152 130 104 102 126 114
19 61 46 34 59 52 51 41 6 11 19 0 4 3 5 1 2 5 0 0 0 0 0 0 0 0 0 0 0 0 9 58 144 147 134 89 137 149
63 41 54 44 64 76 66 9 0 11 4 0 6 4 0 0 5 2 0 0 0 0 0 0 0 0 0 0 0 0 0 0 25 96 97 83 134 188
15 24 86 63 72 80 17 36 8 3 0 4 8 5 0 1 2 0 0 0 0 0 0 0 0 0 0 0 0 0 0 0 0 12 61 128 113 146
51 18 78 84 45 29 50 47 16 5 5 14 2 0 2 2 1 0 0 0 0 0 0 0 0 0 0 0 0 0 0 0 0 0 8 31 62 118
47 74 141 81 47 82 56 40 10 2 2 0 0 0 1 1 2 0 0 0 0 0 0 0 0 0 0 0 0 0 0 0 2 19 29 25 25 48
110 110 78 22 46 38 16 19 23 8 13 4 9 0 1 1 0 0 0 0 0 0 0 0 0 0 0 0 0 0 0 0 0 1 5 17 30 15
260 87 28 75 32 47 26 9 14 3 2 4 0 0 2 0 1 0 0 0 0 0 0 0 0 0 0 0 0 0 0 0 1 2 25 23 3 1
138 57 45 34 52 35 29 13 9 6 2 6 0 1 1 1 0 0 0 0 0 0 0 0 0 0 0 0 0 0 0 0 1 0 18 16 0 0
57 68 65 30 52 48 24 4 3 8 8 7 7 3 0 0 0 0 0 0 0 0 0 0 0 0 0 0 0 0 0 0 6 0 0 0 0 0
52 66 79 87 42 57 4 5 1 3 5 0 0 0 0 0 0 0 0 0 0 0 0 0 0 0 0 0 0 0 0 0 0 0 0 0 0 0
92 5 45 26 3 2 3 0 0 0 0 0 0 0 0 0 0 0 0 0 0 0 0 0 0 0 0 0 0 17 4 0 0 0 0 0 0 0
4 26 10 5 3 6 3 1 3 0 0 0 0 0 0 0 0 0 0 0 0 0 0 0 0 0 0 0 0 22 20 3 0 3 0 0 0 0
6 4 2 5 4 3 2 0 0 0 0 0 0 0 0 0 0 0 0 0 0 0 0 0 0 0 0 0 22 30 24 0 14 24 0 0 0 0
0 3 3 0 0 0 0 0 0 0 0 0 0 0 0 0 0 0 0 0 0 0 0 0 0 0 0 0 48 21 2 25 0 0 0 0 0 0
0 0 0 0 0 0 0 0 0 0 0 0 0 0 0 0 0 0 0 0 0 0 0 0 0 0 0 31 69 25 0 0 0 0 26 0 0 0
0 0 0 0 0 0 0 0 0 0 0 0 0 0 0 0 0 0 0 0 0 0 0 0 0 0 0 0 68 6 0 0 0 23 0 0 0 58
0 0 0 0 0 0 0 0 0 0 0 0 0 0 0 0 0 0 0 0 0 0 0 0 0 0 0 0 4 24 11 0 0 0 0 0 0 46
0 0 0 0 0 0 0 0 0 0 0 0 0 0 0 0 0 0 0 0 0 0 0 0 0 0 0 0 0 0 45 25 26 34 43 0 0 30
0 0 0 0 0 0 0 0 0 0 0 0 0 0 0 0 0 0 0 0 0 0 0 0 0 0 0 0 0 0 0 91 37 77 39 0 10 0
0 0 0 0 0 0 0 0 0 0 0 0 0 0 0 0 0 0 0 0 0 0 0 0 0 0 0 0 0 0 0 0 16 15 0 0 0 11
0 0 0 0 0 0 0 0 0 0 0 0 0 0 0 0 0 0 0 0 0 0 0 0 0 0 0 0 0 0 7 0 0 0 0 0 0 0
0 0 0 0 0 0 0 0 0 0 0 0 0 0 0 0 0 0 0 0 0 0 0 0 0 0 0 0 0 0 0 1 0 0 0 0 0 0

GFSNE_con_mucape_066.txt.gz
CAPE
568 472 202 22 1 25 26 29 31 19 6 0 0 2 1 0 0 4 0 0 0 0 1 0 0 0 0 0 0 0 0 0 0 0 0 21 46 67
540 300 224 242 106 33 36 37 41 40 29 2 0 0 1 0 6 3 0 0 0 3 0 0 0 0 0 0 0 0 0 0 0 0 0 0 17 64
99 31 33 48 28 30 19 36 73 58 119 19 19 5 0 1 7 3 0 0 0 0 0 0 0 0 0 0 0 0 0 0 0 0 0 0 2 16
26 23 11 31 14 14 17 2 48 66 76 8 20 7 0 11 2 0 0 0 0 0 0 0 0 0 0 0 0 0 0 0 0 0 0 0 2 11
2 4 4 42 28 36 0 14 62 67 49 28 13 0 0 7 3 1 0 3 1 0 0 0 0 0 0 0 0 0 0 0 0 0 0 0 0 18
7 11 23 48 31 49 53 37 60 43 49 47 14 3 6 0 5 1 0 0 0 0 0 0 0 0 0 0 0 0 0 0 0 0 0 0 0 0
5 0 44 16 30 60 44 40 50 54 37 0 6 0 2 0 0 0 0 0 0 0 0 0 0 0 0 0 0 0 0 0 0 0 0 0 0 2
11 19 54 96 82 72 64 12 56 9 42 2 5 9 3 2 0 0 0 0 0 0 0 0 0 0 0 0 0 0 0 0 0 0 0 4 6 1
116 102 202 58 95 56 4 43 35 30 33 17 4 1 0 0 3 0 2 0 0 0 0 0 0 0 0 0 0 0 0 0 0 0 0 2 5 1
84 87 96 152 15 146 17 21 16 26 16 4 0 1 2 4 3 1 0 0 0 0 0 0 0 0 0 0 0 0 0 0 0 0 0 5 9 0
119 169 193 89 159 146 3 1 0 0 1 1 1 2 2 0 0 0 0 0 0 0 0 0 0 0 0 0 0 0 0 0 0 0 0 0 6 0
145 169 80 120 67 94 26 0 8 16 0 0 2 1 0 0 0 0 0 0 0 0 0 0 0 0 0 0 0 0 10 10 0 0 0 0 0 30
109 37 102 151 62 3 4 10 0 0 2 1 0 0 0 0 0 0 0 0 0 0 0 0 0 0 0 0 0 0 33 54 47 22 4 0 0 0
101 110 73 48 0 7 9 0 1 1 0 0 0 0 0 0 0 0 0 0 0 0 0 0 0 0 0 0 0 0 14 44 58 26 83 16 0 0
45 7 0 1 1 2 2 0 0 0 0 0 0 0 0 0 0 0 0 0 0 0 0 0 0 0 0 0 0 0 52 49 77 68 101 87 36 62
0 0 0 0 0 0 0 0 0 0 0 0 0 0 0 0 0 0 0 0 0 0 0 0 0 0 0 0 0 0 25 92 65 76 99 97 81 72
0 0 0 0 0 0 0 0 0 0 0 0 0 0 0 0 0 0 0 0 0 0 0 0 0 0 0 0 0 0 29 81 96 68 84 153 130 139
0 0 0 0 0 0 0 0 0 0 0 0 0 0 0 0 0 0 0 0 0 0 0 0 0 0 0 0 12 46 63 84 109 80 107 144 124 137
0 0 0 0 0 0 0 0 0 0 0 0 0 0 0 0 0 0 0 0 0 0 0 0 0 0 0 0 0 1 47 78 139 142 138 95 119 95
0 0 0 0 0 0 0 0 0 0 0 0 0 0 0 0 0 0 0 0 0 0 0 0 0 0 0 0 0 0 2 0 0 144 106 129 95 2
0 0 0 0 0 0 0 0 0 0 0 0 0 0 0 0 0 0 0 0 0 0 0 0 0 0 0 0 0 0 0 0 0 0 143 176 104 37
0 0 0 0 0 0 0 0 0 0 0 0 0 0 0 0 0 0 0 0 0 0 0 0 0 0 0 0 0 0 0 0 0 0 0 8 56 32
0 0 0 0 0 0 0 0 0 0 0 0 0 0 0 0 0 0 0 0 0 0 0 0 0 0 0 0 0 0 0 0 1 20 0 0 0 0

GFSNE_con_mucape_069.txt.gz
CAPE
450 448 450 524 712 484 145 15 2 11 15 1 0 0 6 2 0 0 0 0 0 0 0 0 0 0 0 0 0 0 0 0 0 0 0 0 0 3
371 459 483 518 515 359 68 72 46 13 19 34 20 29 10 17 1 0 0 0 1 4 0 0 0 0 0 0 0 0 0 0 0 0 0 0 0 0
280 353 377 391 318 140 100 62 21 13 8 9 11 21 1 9 4 1 0 0 4 0 0 0 0 0 0 0 0 0 0 0 0 0 0 0 0 0
259 294 230 80 120 76 32 26 18 4 0 0 0 12 19 27 8 10 1 6 0 1 0 0 0 0 0 0 0 0 0 0 0 0 0 0 0 0
174 264 161 33 9 3 4 46 0 33 0 0 1 5 1 3 4 5 0 1 5 0 0 0 0 0 0 0 0 0 0 0 0 0 0 0 0 0
111 148 31 3 1 17 12 6 1 19 6 33 23 0 15 5 1 3 3 3 1 3 0 0 0 0 0 0 0 0 0 0 0 0 0 0 0 0
67 17 0 0 0 11 42 21 58 57 6 32 75 39 18 34 24 3 2 1 0 0 0 0 0 0 0 0 0 0 0 0 0 0 0 0 0 0
53 0 5 6 4 20 37 55 27 47 12 71 62 6 21 2 0 0 9 10 4 0 0 0 0 0 0 0 0 0 0 0 0 0 0 0 0 0
6 16 42 31 67 73 77 78 45 26 28 14 10 54 2 4 11 1 0 1 3 0 0 0 0 0 0 0 0 0 0 0 0 0 0 0 0 0
28 38 49 58 163 104 97 81 10 89 23 27 11 4 0 0 0 3 2 0 0 0 0 0 0 0 0 0 0 0 0 0 0 0 0 0 0 0
103 141 167 205 129 137 89 117 53 2 3 2 1 0 0 0 0 0 0 0 0 0 0 0 0 0 0 0 0 0 0 0 0 0 0 0 0 1
187 277 290 198 195 193 176 140 76 84 65 2 0 0 0 0 0 0 0 0 0 0 0 0 0 0 0 0 0 0 0 0 0 0 1 0 0 1
124 60 109 160 136 138 118 44 32 39 0 2 0 1 0 0 0 0 0 0 0 0 0 0 0 0 0 0 0 0 0 0 0 9 18 0 0 4
84 104 110 151 127 87 25 0 0 0 0 0 0 0 0 0 0 0 0 0 0 0 0 0 0 0 0 0 0 0 0 0 0 11 55 42 4 0
99 32 18 37 73 44 1 0 0 0 0 0 0 0 0 0 0 0 0 0 0 0 0 0 0 0 0 0 0 0 0 0 0 1 61 92 100 17
8 3 0 0 0 0 0 0 0 0 0 0 0 0 0 0 0 0 0 0 0 0 0 0 0 0 0 0 0 0 0 0 0 13 20 81 105 74
7 0 0 0 0 0 0 0 0 0 0 0 0 0 0 0 0 0 0 0 0 0 0 0 0 0 0 0 0 0 0 0 6 33 32 82 130 110
0 0 0 0 0 0 0 0 0 0 0 0 0 0 0 0 0 0 0 0 0 0 0 0 0 0 0 0 0 0 0 0 16 0 9 96 110 139
0 0 0 0 0 0 0 0 0 0 0 0 0 0 0 0 0 0 0 0 0 0 0 0 0 0 0 0 0 16 0 0 0 0 0 28 126 124
0 0 0 0 0 0 0 0 0 0 0 0 0 0 0 0 0 0 0 0 0 0 0 0 0 0 0 0 0 0 0 0 0 0 0 2 81 1
0 0 0 0 0 0 0 0 0 0 0 0 0 0 0 0 0 0 0 0 0 0 0 0 0 0 0 0 0 0 0 22 0 0 0 0 17 7
0 0 0 0 0 0 0 0 0 0 0 0 0 0 0 0 0 0 0 0 0 0 0 0 0 0 0 0 0 0 0 0 0 0 0 0 0 47
0 0 0 0 0 0 0 0 0 0 0 0 0 0 0 0 0 0 0 0 0 0 0 0 0 0 0 0 0 0 0 0 0 0 0 0 0 0

GFSNE_con_mucape_072.txt.gz
CAPE
35 43 45 57 82 103 114 82 47 8 0 0 0 0 0 2 1 2 20 3 0 0 0 0 0 0 0 0 0 0 0 0 0 0 0 0 0 0
28 36 27 37 79 105 108 139 96 20 13 0 0 0 0 2 0 3 13 10 3 1 0 0 0 2 1 0 0 0 0 0 0 0 0 0 0 0
29 26 59 98 88 116 113 116 103 28 22 24 11 20 18 5 5 1 3 17 21 12 10 0 0 3 0 0 0 0 0 0 0 0 0 0 0 0
2 32 28 38 70 116 130 127 105 66 62 73 1 1 14 4 0 0 12 0 11 14 8 1 0 4 1 0 0 0 0 0 0 0 0 0 0 0
0 5 9 22 41 59 109 101 56 63 42 21 6 0 0 6 0 0 3 3 12 11 7 1 12 7 1 0 0 0 0 0 0 0 0 0 0 0
0 11 17 20 17 42 54 52 42 19 0 9 8 5 20 7 8 3 8 1 6 6 1 2 6 5 4 0 0 0 0 0 0 0 0 0 0 0
6 6 3 1 8 18 24 23 7 18 2 3 10 8 12 0 2 1 30 11 0 0 0 0 4 0 0 0 0 0 0 0 0 0 0 0 0 0
0 0 1 3 3 25 38 15 0 0 0 46 1 16 0 18 12 19 1 17 10 0 0 0 0 0 0 0 0 0 0 0 0 0 0 0 0 0
6 9 11 4 3 8 38 40 35 15 16 31 0 13 7 0 4 0 2 12 0 0 0 0 0 0 0 0 0 0 0 0 0 0 0 0 0 0
26 32 41 31 42 42 16 19 57 68 32 27 55 34 34 0 0 1 0 0 0 0 0 0 0 0 0 0 0 0 0 0 0 0 0 0 0 0
43 54 72 12 41 102 170 95 97 111 48 110 11 2 20 15 2 0 0 0 0 0 0 0 0 0 0 0 0 0 0 0 0 0 0 0 0 0
7 29 136 92 112 99 128 99 135 144 119 110 59 2 2 0 0 0 0 0 0 0 0 0 0 0 0 0 0 0 0 0 0 0 0 0 0 0
31 52 76 113 100 100 97 71 92 115 110 79 49 11 0 0 0 0 0 0 0 0 0 0 0 0 0 0 0 0 0 0 0 0 0 0 0 16
69 82 94 161 70 88 96 91 88 41 26 0 0 0 0 0 0 0 0 0 0 0 0 0 0 0 0 0 0 0 0 0 0 0 0 0 0 19
7 91 69 44 34 36 55 29 51 22 9 0 0 0 0 0 0 0 0 0 0 0 0 0 0 0 0 0 0 0 0 0 0 0 0 0 0 13
25 10 9 0 0 14 8 11 0 0 0 0 0 0 0 0 0 0 0 0 0 0 0 0 0 0 0 0 0 0 0 0 0 0 0 0 0 5
1 1 1 0 2 0 0 0 0 0 0 0 0 0 0 0 0 0 0 0 0 0 0 0 0 0 0 0 0 0 0 0 0 0 0 0 0 16
0 0 0 0 0 0 0 0 0 0 0 0 0 0 0 0 0 0 0 0 0 0 0 0 0 0 0 0 0 0 0 0 0 0 0 0 0 0
0 0 0 0 0 0 0 0 0 0 0 0 0 0 0 0 0 0 0 0 0 0 0 0 0 0 0 0 0 0 0 0 0 0 0 0 0 0
0 0 0 0 0 0 0 0 0 0 0 0 0 0 0 0 0 0 0 0 0 0 0 0 0 0 0 0 0 0 0 0 0 0 0 0 0 0
0 0 0 0 0 0 0 0 0 0 0 0 0 0 0 0 0 0 0 0 0 0 0 0 0 0 0 0 0 0 0 0 0 0 0 0 0 0
0 0 0 0 0 0 0 0 0 0 0 0 0 0 0 0 0 0 0 0 0 0 0 0 0 0 0 0 0 0 0 0 0 0 0 0 0 0
0 0 0 0 0 0 0 0 0 0 0 0 0 0 0 0 0 0 0 0 0 0 0 0 0 0 0 0 0 0 0 0 0 0 0 0 0 0

GFSNE_con_mucape_075.txt.gz
CAPE
43 34 26 16 15 12 15 37 28 0 0 0 13 0 0 0 0 26 33 11 3 5 29 19 0 0 0 0 0 0 0 0 0 0 0 0 0 0
32 22 19 6 2 21 19 34 44 17 0 0 0 0 0 0 5 10 6 9 5 7 35 27 15 2 1 0 0 3 3 0 0 0 0 0 0 0
9 5 6 6 1 11 15 19 19 29 21 0 0 2 0 0 26 10 13 27 13 9 18 11 4 9 3 2 0 1 11 0 0 0 0 0 0 0
2 9 2 2 5 2 7 10 15 5 3 3 7 0 0 0 25 13 25 39 27 17 26 5 2 25 2 15 4 1 3 3 0 0 0 0 0 0
0 0 0 2 0 0 0 3 14 36 36 39 13 17 14 1 2 2 1 0 5 2 0 2 3 3 2 1 0 0 1 0 0 0 0 0 0 0
0 0 0 0 0 0 0 0 27 56 68 53 18 5 0 0 0 0 0 2 0 16 2 14 15 2 8 4 0 0 0 0 0 0 0 0 0 0
0 0 0 0 0 1 0 0 12 51 72 72 26 3 12 1 1 2 0 17 0 0 3 7 0 1 3 2 1 0 0 0 0 0 0 0 0 0
0 0 0 0 0 0 0 11 24 38 47 59 23 10 15 5 3 5 6 0 16 2 0 0 0 0 0 0 0 0 0 0 0 0 0 0 0 0
8 4 1 0 0 3 17 33 44 54 58 66 67 44 21 14 24 1 0 1 0 11 0 6 0 0 0 0 0 0 0 0 0 0 0 0 0 0
34 20 9 5 14 21 58 38 85 46 44 51 57 47 25 28 45 12 0 4 6 0 2 0 0 0 0 0 0 0 0 0 0 0 0 0 0 0
94 62 78 147 167 71 50 23 63 49 36 26 40 35 34 20 22 1 18 8 4 9 0 0 0 0 0 0 0 0 0 0 0 0 0 0 0 0
145 118 77 82 50 76 18 14 21 23 27 30 17 39 42 1 0 4 2 12 0 0 0 0 0 0 0 0 0 0 0 0 0 0 0 0 0 0
88 84 84 75 54 74 52 66 46 29 3 25 31 33 12 6 2 0 0 0 0 0 0 0 0 0 0 0 0 0 0 0 0 0 0 0 0 0
92 61 57 21 115 33 36 0 0 30 0 1 0 1 14 7 0 0 0 0 0 0 0 0 0 0 0 0 0 0 0 0 0 0 0 0 0 0
121 22 41 48 4 15 7 0 0 1 12 0 0 0 0 0 0 0 0 0 0 0 0 0 0 0 0 0 0 0 0 0 0 0 0 0 0 0
72 4 7 0 0 0 0 0 0 0 0 0 0 0 0 0 0 0 0 0 0 0 0 0 0 0 0 0 0 0 0 0 0 0 0 0 0 0
0 2 0 0 0 0 0 0 0 0 0 0 0 0 0 0 0 0 0 0 0 0 0 0 0 0 0 0 0 0 0 0 0 0 0 0 0 0
0 0 0 0 0 0 0 0 0 0 0 0 0 0 0 0 0 0 0 0 0 0 0 0 0 0 0 0 0 0 0 0 0 0 0 0 0 0
0 0 0 0 0 0 0 0 0 0 0 0 0 0 0 0 0 0 0 0 0 0 0 0 0 0 0 0 0 0 0 0 0 0 0 0 0 0
0 0 0 0 0 0 0 0 0 0 0 0 0 0 0 0 0 0 0 0 0 0 0 0 0 0 0 0 0 0 0 0 0 0 0 0 0 0
0 0 0 0 0 0 0 0 0 0 0 0 0 0 0 0 0 0 0 0 0 0 0 0 0 0 0 0 0 0 0 0 0 0 0 0 0 0
0 0 0 0 0 0 0 0 0 0 0 0 0 0 0 0 0 0 0 0 0 0 0 0 0 0 0 0 0 0 0 0 0 0 0 0 0 0
0 0 0 0 0 0 0 0 0 0 0 0 0 0 0 0 0 0 0 0 0 0 0 0 0 0 0 0 0 0 0 0 0 0 0 0 0 0

GFSNE_con_mucape_078.txt.gz
CAPE
103 68 55 33 12 11 13 33 20 6 23 1 0 1 0 0 0 1 2 2 10 14 8 24 29 6 8 22 22 10 2 0 0 0 2 1 0 0
76 74 41 17 7 5 42 18 23 6 10 0 0 0 0 0 0 1 4 3 0 15 14 9 10 7 13 20 21 15 11 7 2 1 8 2 0 0
45 40 27 13 17 11 16 1 3 16 18 0 0 0 0 0 0 0 0 1 0 6 7 9 20 14 12 19 16 10 2 20 1 5 12 5 3 0
40 34 9 11 6 4 5 7 13 0 2 0 0 0 0 0 0 0 0 0 1 5 1 14 9 13 18 28 4 8 1 10 2 2 5 2 1 0
9 1 0 4 0 3 6 6 2 2 5 0 0 0 0 0 0 0 3 2 0 3 3 0 11 9 17 8 7 1 0 0 0 0 0 0 0 0
0 0 0 0 0 0 0 0 0 1 0 1 3 0 3 4 3 3 0 6 3 1 4 1 5 2 9 13 7 6 3 3 1 1 0 0 0 0
0 0 0 0 0 0 0 0 0 0 0 0 0 0 3 20 28 18 6 6 2 7 0 0 5 4 1 5 1 1 1 1 1 0 0 0 0 0
0 0 0 0 0 0 0 0 0 0 0 0 0 16 17 21 12 7 14 28 27 11 3 0 0 0 0 1 1 1 1 0 0 0 0 0 0 0
1 0 0 0 0 0 0 0 0 0 9 18 21 20 22 37 20 35 41 30 25 3 28 14 0 0 0 0 2 0 0 0 0 0 0 0 0 0
23 25 30 16 15 19 26 32 42 38 45 67 73 45 41 36 52 64 51 59 15 4 6 1 1 4 5 0 0 0 0 0 0 0 0 0 0 0
158 173 62 63 67 80 133 46 57 31 9 24 30 22 31 37 61 43 40 34 15 6 0 0 0 0 1 0 0 0 0 0 0 0 0 0 0 0
112 101 91 74 74 80 86 77 55 50 26 20 23 53 27 13 22 26 25 15 1 0 0 0 4 0 0 0 0 0 0 0 0 0 0 0 0 0
195 120 102 108 84 63 84 111 103 85 67 60 12 6 17 16 1 0 0 0 0 0 0 0 0 0 0 0 0 0 0 0 0 0 0 0 0 0
188 152 58 42 23 35 80 67 51 52 51 13 4 0 0 0 0 0 0 0 0 0 0 0 0 0 0 0 0 0 0 0 0 0 0 0 0 0
46 86 77 25 63 4 37 18 129 10 0 0 0 0 0 0 0 0 0 0 0 0 0 0 0 0 0 0 0 0 0 0 0 0 0 0 0 0
1 0 6 1 3 0 0 0 0 0 0 0 0 0 0 0 0 0 0 0 0 0 0 0 0 0 0 0 0 0 0 0 0 0 0 0 0 0
0 0 0 0 0 0 0 0 0 0 0 0 0 0 0 0 0 0 0 0 0 0 0 0 0 0 0 0 0 0 0 0 0 0 0 0 0 0
0 0 0 0 0 0 0 0 0 0 0 0 0 0 0 0 0 0 0 0 0 0 0 0 0 0 0 0 0 0 0 0 0 0 0 0 0 0
0 0 0 0 0 0 0 0 0 0 0 0 0 0 0 0 0 0 0 0 0 0 0 0 0 0 0 0 0 0 0 0 0 0 0 0 0 0
0 0 0 0 0 0 0 0 0 0 0 0 0 0 0 0 0 0 0 0 0 0 0 0 0 0 0 0 0 0 0 0 0 0 0 0 0 0
0 0 0 0 0 0 0 0 0 0 0 0 0 0 0 0 0 0 0 0 0 0 0 0 0 0 0 0 0 0 0 0 0 0 0 0 0 0
0 0 0 0 0 0 0 0 0 0 0 0 0 0 0 0 0 0 0 0 0 0 0 0 0 0 0 0 0 0 0 0 0 0 0 0 0 0
0 0 0 0 0 0 0 0 0 0 0 0 0 0 0 0 0 0 0 0 0 0 0 0 0 0 0 0 0 0 0 0 0 0 0 0 0 0

GFSNE_con_mucape_084.txt.gz
CAPE
82 62 60 36 36 44 56 57 38 0 0 8 6 12 18 27 10 1 7 12 18 6 4 4 2 1 2 7 0 4 0 1 9 21 43 53 97 150
42 43 36 34 1 42 47 43 52 0 7 8 5 3 7 10 12 7 7 20 21 10 13 8 3 0 0 1 1 0 7 13 16 25 10 27 27 69
29 21 15 2 0 15 14 6 35 40 21 6 1 0 0 19 2 5 7 9 3 5 1 0 0 0 0 0 0 1 5 8 18 12 2 10 12 8
7 10 5 1 0 23 40 44 36 28 36 0 0 0 0 1 6 4 3 5 4 0 0 0 0 0 0 0 1 3 0 0 1 7 1 3 12 23
38 33 43 41 45 48 40 33 31 39 38 10 10 7 7 7 1 1 0 0 1 0 0 0 0 0 0 0 0 3 4 6 2 4 7 0 1 7
10 13 12 14 15 14 8 12 27 32 26 33 21 22 20 12 12 2 0 0 0 0 0 0 0 0 0 0 0 0 0 5 13 4 0 0 1 3
0 0 7 5 1 7 21 15 18 14 6 6 2 2 6 3 0 0 0 0 0 0 0 0 0 0 0 0 0 6 15 8 7 4 1 1 2 0
0 0 0 1 1 10 8 10 24 60 11 15 12 11 10 0 0 0 0 0 0 0 0 0 0 0 0 0 9 16 34 32 2 1 2 0 0 0
0 0 0 0 2 0 1 7 9 11 22 36 18 19 10 10 9 5 6 9 3 2 2 5 10 16 6 9 3 0 7 5 2 1 1 2 1 0
53 38 44 24 23 18 21 10 9 33 27 15 59 28 15 8 11 12 36 13 15 10 4 6 6 4 5 10 6 4 5 1 1 0 0 0 0 0
129 111 48 70 45 71 152 96 96 65 27 62 57 76 21 14 53 59 57 31 25 13 14 20 0 0 0 0 0 0 0 0 0 0 0 0 0 0
100 49 47 24 37 4 13 67 56 64 68 11 16 53 7 6 0 3 0 58 18 0 0 2 17 0 0 0 0 0 0 0 0 0 0 0 0 0
133 118 67 112 83 14 33 0 2 16 0 0 0 0 0 0 0 0 0 0 0 2 1 0 0 0 0 0 0 0 0 0 0 0 0 0 0 0
125 112 104 57 24 4 0 0 0 0 0 0 0 0 1 10 0 3 0 0 0 0 0 0 0 0 0 0 0 0 0 0 0 0 0 0 0 0
0 0 0 1 0 0 0 0 0 0 0 0 0 0 1 0 0 0 0 0 0 0 0 0 0 0 0 0 0 0 0 0 0 0 0 0 0 0
0 0 0 0 0 0 0 0 0 0 0 0 0 0 0 0 0 0 0 0 0 0 0 0 0 0 0 0 0 0 0 0 0 0 0 0 0 0
0 0 0 0 0 0 0 0 0 0 0 0 0 0 0 0 0 0 0 0 0 0 0 0 0 0 0 0 0 0 0 0 0 0 0 0 0 0
0 0 0 0 0 0 0 0 0 0 0 0 0 0 0 0 0 0 0 0 0 0 0 0 0 0 0 0 0 0 0 0 0 0 0 0 0 0
0 0 0 0 0 0 0 0 0 0 0 0 0 0 0 0 0 0 0 0 0 0 0 0 0 0 0 0 0 0 0 0 0 0 0 0 0 0
0 0 0 0 0 0 0 0 0 0 0 0 0 0 0 0 0 0 0 0 0 0 0 0 0 0 0 0 0 0 0 0 0 0 0 0 0 0
0 0 0 0 0 0 0 0 0 0 0 0 0 0 0 0 0 0 0 0 0 0 0 0 0 0 0 0 0 0 0 0 0 0 0 0 0 0
0 0 0 0 0 0 0 0 0 0 0 0 0 0 0 0 0 0 0 0 0 0 0 0 0 0 0 0 0 0 0 0 0 0 0 0 0 0
0 0 0 0 0 0 0 0 0 0 0 0 0 0 0 0 0 0 0 0 0 0 0 0 0 0 0 0 0 0 0 0 0 0 0 0 0 0

GFSNE_con_mucape_090.txt.gz
CAPE
129 189 170 189 186 162 139 96 118 100 56 113 171 98 63 41 13 11 22 7 3 11 18 11 18 13 7 11 12 14 7 5 3 10 17 30 55 77
0 102 56 114 135 152 130 114 132 133 95 130 181 129 117 21 6 9 14 4 4 0 3 0 2 4 10 17 9 12 12 2 6 10 12 5 0 0
6 5 0 60 59 98 117 97 60 124 73 89 199 204 167 139 89 19 3 16 54 0 2 2 5 4 1 2 1 1 1 2 0 3 0 0 0 0
0 0 1 3 3 0 42 10 30 22 1 0 3 19 21 29 39 124 115 44 96 2 0 0 1 1 1 2 11 3 0 0 0 0 0 0 0 0
2 6 7 7 0 1 0 0 2 66 77 112 78 77 145 235 286 236 220 344 197 29 11 1 0 0 1 8 28 15 12 1 0 0 0 0 0 0
3 3 3 0 0 3 4 18 9 24 49 17 6 19 63 136 221 236 254 309 185 75 36 18 7 5 4 0 0 0 0 0 0 0 0 0 0 0
32 11 22 4 11 29 121 91 126 174 200 230 148 96 84 135 124 103 52 15 53 216 78 12 5 13 8 3 0 0 0 0 3 6 5 3 4 8
50 59 60 9 3 25 34 31 24 132 60 15 12 8 12 28 15 13 6 15 13 8 2 4 1 0 3 1 2 0 0 0 5 5 1 1 3 7
9 10 8 18 17 20 27 22 11 9 12 20 22 22 12 13 26 10 0 0 3 3 2 0 0 0 10 5 0 0 1 1 0 0 1 4 0 8
5 7 6 9 8 11 13 15 28 22 17 4 22 5 8 5 1 0 0 0 0 0 2 0 0 0 0 0 0 0 0 1 0 0 3 0 0 0
20 75 48 53 73 107 43 42 16 6 5 1 22 10 1 7 3 3 0 0 0 0 0 0 0 0 0 0 1 0 0 0 0 0 0 0 0 0
67 80 65 49 61 28 20 19 38 35 35 3 0 1 1 0 1 0 0 0 0 0 0 0 0 0 0 0 0 0 0 0 0 0 0 0 0 0
100 94 113 124 140 85 74 69 51 54 44 8 1 0 0 0 0 0 0 0 0 0 0 0 0 0 0 0 0 0 0 0 0 0 0 0 0 0
0 0 0 0 0 0 0 0 0 0 0 0 0 0 0 0 0 0 0 0 0 0 0 0 0 0 0 0 0 0 0 0 0 0 0 0 0 0
0 0 0 0 0 0 0 0 0 0 0 0 0 0 0 0 0 0 0 0 0 0 0 0 0 0 0 0 0 0 0 0 0 0 0 0 0 0
0 0 0 0 0 0 0 0 0 0 0 0 0 0 0 0 0 0 0 0 0 0 0 0 0 0 0 0 0 0 0 0 0 0 0 0 0 0
0 0 0 0 0 0 0 0 0 0 0 0 0 0 0 0 0 0 0 0 0 0 0 0 0 0 0 0 0 0 0 0 0 0 0 0 0 0
0 0 0 0 0 0 0 0 0 0 0 0 0 0 0 0 0 0 0 0 0 0 0 0 0 0 0 0 0 0 0 0 0 0 0 0 0 0
0 0 0 0 0 0 0 0 0 0 0 0 0 0 0 0 0 0 0 0 0 0 0 0 0 0 0 0 0 0 0 0 0 0 0 0 0 0
0 0 0 0 0 0 0 0 0 0 0 0 0 0 0 0 0 0 0 0 0 0 0 0 0 0 0 0 0 0 0 0 0 0 0 0 0 0
0 0 0 0 0 0 0 0 0 0 0 0 0 0 0 0 0 0 0 0 0 0 0 0 0 0 0 0 0 0 0 0 0 0 0 0 0 0
0 0 0 0 0 0 0 0 0 0 0 0 0 0 0 0 0 0 0 0 0 0 0 0 0 0 0 0 0 0 0 0 0 0 0 0 0 0
0 0 0 0 0 0 0 0 0 0 0 0 0 0 0 0 0 0 0 0 0 0 0 0 0 0 0 0 0 0 0 0 0 0 0 0 0 0

GFSNE_con_mucape_093.txt.gz
CAPE
163 196 145 126 208 253 202 139 159 66 71 194 155 196 208 210 130 159 135 45 16 3 0 1 5 5 5 0 0 1 3 3 9 9 7 20 45 75
102 121 82 146 153 153 137 201 184 102 59 64 121 168 163 43 36 97 131 32 3 3 0 0 0 0 0 0 0 2 7 11 8 15 14 13 18 18
14 34 0 66 116 184 136 73 146 136 113 91 86 127 68 170 108 51 56 65 77 13 5 0 0 0 0 1 2 7 3 8 17 10 9 3 0 1
0 0 6 2 64 77 146 108 121 62 32 3 7 0 0 8 54 213 157 77 52 3 0 4 8 18 17 17 23 16 2 5 4 1 0 0 0 0
7 0 2 0 68 52 19 5 6 1 0 3 0 27 79 135 136 91 88 178 193 100 86 47 20 23 37 17 12 22 20 15 15 22 27 19 9 9
2 1 4 12 16 21 7 4 1 0 2 8 8 13 25 78 114 125 170 220 234 128 86 51 41 17 21 35 33 13 6 18 7 9 10 4 2 5
8 0 0 2 4 13 0 12 20 9 63 44 34 65 85 160 207 194 67 55 13 15 18 16 24 17 52 42 18 9 9 8 11 0 2 3 3 4
7 8 9 0 0 2 2 0 13 43 50 51 47 26 32 34 10 11 20 25 21 23 1 0 15 0 13 4 9 6 17 11 18 16 11 7 4 1
16 29 34 25 19 14 13 10 1 14 19 25 14 18 25 37 20 24 11 1 0 0 0 0 0 0 0 0 0 0 0 5 3 3 3 4 2 2
7 20 10 19 39 36 32 22 10 7 6 15 24 21 15 0 22 6 0 0 1 2 1 1 0 0 3 3 4 3 4 4 3 4 5 5 1 0
5 2 5 2 0 0 30 19 11 0 15 8 6 4 7 4 6 0 0 2 0 0 3 2 1 0 0 0 0 0 0 0 0 0 0 0 0 0
21 3 6 10 37 48 57 38 58 53 27 3 21 18 14 5 1 1 3 0 0 0 0 0 0 0 0 0 0 0 0 0 0 0 0 0 0 0
3 1 13 5 66 42 3 22 58 36 56 48 40 16 0 0 0 0 0 0 0 0 0 0 0 0 0 0 0 0 0 0 0 0 0 0 0 0
19 11 36 25 29 7 0 0 0 0 0 0 0 0 0 0 0 0 0 0 0 0 0 0 0 0 0 0 0 0 0 0 0 0 0 0 0 0
0 0 0 0 0 0 0 0 0 0 0 0 0 0 0 0 0 0 0 0 0 0 0 0 0 0 0 0 0 0 0 0 0 0 0 0 0 0
0 0 0 0 0 0 0 0 0 0 0 0 0 0 0 0 0 0 0 0 0 0 0 0 0 0 0 0 0 0 0 0 0 0 0 0 0 0
0 0 0 0 0 0 0 0 0 0 0 0 0 0 0 0 0 0 0 0 0 0 0 0 0 0 0 0 0 0 0 0 0 0 0 0 0 0
0 0 0 0 0 0 0 0 0 0 0 0 0 0 0 0 0 0 0 0 0 0 0 0 0 0 0 0 0 0 0 0 0 0 0 0 0 0
0 0 0 0 0 0 0 0 0 0 0 0 0 0 0 0 0 0 0 0 0 0 0 0 0 0 0 0 0 0 0 0 0 0 0 0 0 0
0 0 0 0 0 0 0 0 0 0 0 0 0 0 0 0 0 0 0 0 0 0 0 0 0 0 0 0 0 0 0 0 0 0 0 0 0 0
0 0 0 0 0 0 0 0 0 0 0 0 0 0 0 0 0 0 0 0 0 0 0 0 0 0 0 0 0 0 0 0 0 0 0 0 0 0
0 0 0 0 0 0 0 0 0 0 0 0 0 0 0 0 0 0 0 0 0 0 0 0 0 0 0 0 0 0 0 0 0 0 0 0 0 0
0 0 0 0 0 0 0 0 0 0 0 0 0 0 0 0 0 0 0 0 0 0 0 0 0 0 0 0 0 0 0 0 0 0 0 0 0 0

GFSNE_con_mucape_096.txt.gz
CAPE
36 57 91 128 139 130 105 80 34 0 22 77 101 116 121 88 64 83 72 53 50 36 16 8 0 0 2 8 2 13 24 5 1 3 12 33 69 105
43 49 82 89 72 90 95 91 74 60 0 44 89 97 110 81 109 94 85 72 50 43 38 15 0 1 4 4 6 10 14 18 12 11 11 9 9 25
49 66 78 60 55 55 45 78 72 57 6 49 43 69 69 69 45 35 21 27 26 26 17 6 9 6 10 9 6 12 17 16 9 9 10 12 14 21
64 65 77 81 54 43 51 48 0 20 18 4 21 1 5 16 26 38 28 22 7 8 11 6 28 44 39 41 43 37 41 39 26 28 21 20 12 11
43 58 78 61 0 3 1 32 43 39 23 0 0 0 3 1 3 7 10 17 18 30 47 50 42 42 52 55 66 64 67 56 46 44 48 35 30 36
0 0 5 3 16 13 2 7 6 6 2 2 0 0 0 0 10 12 2 27 36 69 83 66 51 55 54 34 40 42 26 16 33 55 50 52 26 22
4 9 6 4 3 0 1 0 0 0 1 18 11 0 2 1 11 11 23 42 45 74 49 62 30 21 32 24 8 5 0 8 9 6 11 3 5 11
4 16 10 11 0 3 8 3 0 0 6 3 11 17 2 30 25 11 8 60 167 29 47 21 22 6 0 0 10 9 23 19 0 1 1 2 1 2
8 7 7 12 2 2 2 0 2 0 2 3 12 17 33 19 26 41 24 0 1 0 0 0 11 1 1 5 6 10 12 12 2 3 2 3 5 4
9 1 10 17 7 17 35 10 20 13 9 13 8 7 5 2 0 2 1 2 1 0 52 0 0 0 1 3 4 3 1 0 0 0 0 0 0 0
14 10 8 8 9 13 12 12 10 10 3 6 9 11 1 2 13 7 40 13 15 1 0 0 0 0 0 0 0 0 0 0 0 0 0 0 0 0
3 17 8 5 7 11 5 9 5 8 32 21 6 1 21 3 38 13 10 1 0 0 0 0 0 0 0 0 0 0 0 0 0 0 0 0 0 0
5 9 6 10 1 0 0 0 2 0 14 0 5 9 10 18 0 0 0 0 0 0 0 0 0 0 0 0 0 0 0 0 0 0 0 0 0 0
0 0 4 2 2 11 0 2 1 0 9 1 2 0 0 0 0 0 0 0 0 0 0 0 0 0 0 0 0 0 0 0 0 0 0 0 0 0
2 2 5 0 0 0 0 0 0 0 0 0 0 0 0 0 0 0 0 0 0 0 0 0 0 0 0 0 0 0 0 0 0 0 0 0 0 0
0 0 0 0 0 0 0 0 0 0 0 0 0 0 0 0 0 0 0 0 0 0 0 0 0 0 0 0 0 0 0 0 0 0 0 0 0 0
0 0 0 0 0 0 0 0 0 0 0 0 0 0 0 0 0 0 0 0 0 0 0 0 0 0 0 0 0 0 0 0 0 0 0 0 0 0
0 0 0 0 0 0 0 0 0 0 0 0 0 0 0 0 0 0 0 0 0 0 0 0 0 0 0 0 0 0 0 0 0 0 0 0 0 0
0 0 0 0 0 0 0 0 0 0 0 0 0 0 0 0 0 0 0 0 0 0 0 0 0 0 0 0 0 0 0 0 0 0 0 0 0 0
0 0 0 0 0 0 0 0 0 0 0 0 0 0 0 0 0 0 0 0 0 0 0 0 0 0 0 0 0 0 0 0 0 0 0 0 0 0
0 0 0 0 0 0 0 0 0 0 0 0 0 0 0 0 0 0 0 0 0 0 0 0 0 0 0 0 0 0 0 0 0 0 0 0 0 0
0 0 0 0 0 0 0 0 0 0 0 0 0 0 0 0 0 0 0 0 0 0 0 0 0 0 0 0 0 0 0 0 0 0 0 0 0 0
0 0 0 0 0 0 0 0 0 0 0 0 0 0 0 0 0 0 0 0 0 0 0 0 0 0 0 0 0 0 0 0 0 0 0 0 0 0

GFSNE_con_mucape_102.txt.gz
CAPE
12 40 12 3 5 16 3 0 0 0 0 0 0 0 0 0 0 0 13 14 9 9 16 28 34 29 28 38 34 29 26 22 17 23 25 8 11 19
23 34 29 11 11 1 4 0 32 53 16 0 0 0 0 0 0 18 33 47 53 51 59 69 67 64 42 38 46 37 14 29 23 18 19 17 23 14
8 15 21 7 17 9 4 43 41 55 58 19 10 25 29 29 44 42 58 53 53 57 64 95 99 97 70 50 36 17 9 12 14 11 4 12 32 37
3 32 18 23 4 11 40 2 44 37 54 53 34 66 71 58 68 59 83 63 94 50 74 85 48 45 35 23 18 10 13 28 25 27 19 42 45 51
37 36 0 15 11 1 1 44 62 18 38 17 27 54 59 42 50 59 78 86 74 35 23 13 6 4 11 19 31 42 37 25 19 37 46 26 12 9
19 22 5 13 21 10 9 61 38 17 20 4 0 9 24 0 10 3 11 13 11 3 5 12 17 16 26 15 21 22 29 18 28 30 10 10 7 7
33 28 19 32 26 8 0 1 0 10 0 0 0 0 0 1 0 0 8 10 14 8 10 14 39 13 11 2 33 5 5 21 6 11 11 3 3 6
18 47 27 17 17 9 1 50 0 9 0 0 0 2 6 2 1 2 11 2 28 12 0 17 22 13 5 2 7 19 16 11 12 11 12 14 21 5
41 5 3 30 0 0 17 6 0 0 0 0 0 0 7 1 7 10 5 2 2 11 18 3 10 0 8 4 6 5 11 7 16 14 8 0 0 0
18 8 2 8 4 35 18 3 0 13 35 0 6 2 3 7 4 8 14 11 10 13 9 10 7 5 7 7 3 2 2 10 7 0 0 0 0 0
2 4 6 0 0 0 0 2 12 8 12 5 5 5 8 6 9 8 7 4 3 11 1 2 0 2 0 5 2 5 3 0 0 0 0 0 0 0
1 9 0 0 0 0 0 2 13 11 0 5 2 4 10 6 8 6 12 19 9 9 0 0 0 0 0 4 0 0 0 0 0 0 0 0 0 0
20 14 43 3 0 24 30 14 14 7 3 0 13 6 6 2 6 9 9 0 1 0 0 12 5 0 0 0 0 0 0 0 0 0 0 0 0 0
18 23 19 11 9 13 17 21 7 4 1 12 0 0 8 8 3 1 1 0 0 2 0 0 0 0 0 0 0 0 0 0 0 0 0 0 0 0
25 24 10 5 1 0 3 1 0 0 0 0 1 0 0 0 0 0 0 0 0 0 0 0 0 0 0 0 0 0 0 0 0 0 0 0 0 0
2 7 6 1 0 0 0 0 0 0 0 0 0 0 0 0 0 0 0 0 0 0 0 0 0 0 0 0 0 0 0 0 0 0 0 0 0 0
0 0 0 0 0 0 0 0 0 0 0 0 0 0 0 0 0 0 0 0 0 0 0 0 0 0 0 0 0 0 0 0 0 0 0 0 0 0
0 0 0 0 0 0 0 0 0 0 0 0 0 0 0 0 0 0 0 0 0 0 0 0 0 0 0 0 0 0 0 0 0 0 0 0 0 0
0 0 0 0 0 0 0 0 0 0 0 0 0 0 0 0 0 0 0 0 0 0 0 0 0 0 0 0 0 0 0 0 0 0 0 0 0 0
0 0 0 0 0 0 0 0 0 0 0 0 0 0 0 0 0 0 0 0 0 0 0 0 0 0 0 0 0 0 0 0 0 0 0 0 0 0
0 0 0 0 0 0 0 0 0 0 0 0 0 0 0 0 0 0 0 0 0 0 0 0 0 0 0 0 0 0 0 0 0 0 0 0 0 0
0 0 0 0 0 0 0 0 0 0 0 0 0 0 0 0 0 0 0 0 0 0 0 0 0 0 0 0 0 0 0 0 0 0 0 0 0 0
0 0 0 0 0 0 0 0 0 0 0 0 0 0 0 0 0 0 0 0 0 0 0 0 0 0 0 0 0 0 0 0 0 0 0 0 0 0

GFSNE_con_mucape_105.txt.gz
CAPE
43 31 18 39 16 7 9 22 59 0 0 0 2 0 0 0 0 0 0 0 0 0 0 0 0 0 1 5 0 0 7 30 47 51 42 36 38 25
31 32 68 31 14 21 14 8 9 5 0 0 2 6 0 0 0 0 0 0 0 0 0 5 10 18 33 28 18 15 15 20 34 35 19 22 29 7
39 63 42 23 9 28 5 4 19 70 1 1 8 8 0 0 0 0 0 4 14 21 45 56 62 65 51 54 60 55 52 37 24 25 17 15 6 1
51 14 15 20 8 39 7 19 9 1 1 0 2 55 4 3 1 0 3 28 40 53 61 41 18 36 55 40 56 52 47 32 25 23 18 25 14 11
6 32 34 6 19 4 18 16 2 8 0 0 15 55 31 29 37 37 41 53 53 58 41 28 51 41 7 2 11 17 13 22 23 33 46 32 28 31
28 18 49 12 20 11 13 26 5 0 0 0 47 50 18 15 72 33 15 22 63 36 34 50 26 2 2 15 17 28 24 25 34 41 47 28 32 24
21 39 34 22 12 2 6 10 0 0 10 2 0 7 0 10 30 3 22 0 4 8 0 3 3 5 4 4 14 33 35 22 17 13 8 4 2 5
22 33 39 19 21 18 29 19 1 0 0 0 0 1 0 0 15 0 0 0 0 1 0 1 1 0 6 3 5 31 6 6 13 8 5 0 0 0
36 46 25 27 41 21 10 6 3 4 15 10 1 0 0 0 0 0 0 0 0 3 0 1 0 3 15 17 20 8 5 3 38 11 5 7 1 4
0 0 24 9 0 17 11 26 0 14 0 10 17 0 19 0 0 0 2 0 0 1 0 4 9 15 15 9 1 1 6 5 7 3 9 7 8 2
0 2 13 0 7 16 7 0 0 0 12 14 20 12 9 3 3 4 0 3 1 3 7 16 0 0 3 1 4 2 4 3 1 10 3 0 0 0
1 2 0 7 13 21 0 0 0 0 1 0 36 8 8 10 6 14 1 0 0 8 3 0 0 0 1 0 0 1 0 1 1 0 0 0 0 0
12 6 0 1 0 0 0 0 0 0 0 0 0 0 2 6 11 12 8 6 2 5 3 0 0 0 1 2 0 0 0 0 0 0 0 0 0 0
28 10 5 5 2 10 13 2 0 0 0 1 3 1 1 0 1 4 1 7 1 1 1 0 0 0 0 0 0 0 0 0 0 0 0 0 0 0
5 15 5 17 8 4 2 2 7 7 2 5 10 1 0 1 7 2 1 0 0 0 0 0 0 0 0 0 0 0 0 0 0 0 0 0 0 0
0 14 2 2 2 4 4 0 0 0 0 0 0 0 0 0 0 0 0 0 0 0 0 0 0 0 0 0 0 0 0 0 0 0 0 0 0 0
0 0 0 0 0 1 0 0 0 0 0 0 0 0 0 0 0 0 0 0 0 0 0 0 0 0 0 0 0 0 0 0 0 0 0 0 0 0
0 0 0 0 0 0 0 0 0 0 0 0 0 0 0 0 0 0 0 0 0 0 0 0 0 0 0 0 0 0 0 0 0 0 0 0 0 0
0 0 0 0 0 0 0 0 0 0 0 0 0 0 0 0 0 0 0 0 0 0 0 0 0 0 0 0 0 0 0 0 0 0 0 0 0 0
0 0 0 0 0 0 0 0 0 0 0 0 0 0 0 0 0 0 0 0 0 0 0 0 0 0 0 0 0 0 0 0 0 0 0 0 0 0
0 0 0 0 0 0 0 0 0 0 0 0 0 0 0 0 0 0 0 0 0 0 0 0 0 0 0 0 0 0 0 0 0 0 0 0 0 0
0 0 0 0 0 0 0 0 0 0 0 0 0 0 0 0 0 0 0 0 0 0 0 0 0 0 0 0 0 0 0 0 0 0 0 0 0 0
0 0 0 0 0 0 0 0 0 0 0 0 0 0 0 0 0 0 0 0 0 0 0 0 0 0 0 0 0 0 0 0 0 0 0 0 0 0

GFSNE_con_mucape_108.txt.gz
CAPE
351 202 201 181 18 8 18 8 26 0 1 1 6 1 4 0 0 0 0 0 0 0 0 0 0 0 0 0 0 0 20 73 106 133 138 127 81 57
216 188 148 103 22 65 22 9 31 0 4 4 14 2 1 0 0 0 0 0 0 0 0 0 0 0 0 0 0 0 0 0 0 1 1 12 23 28
168 91 44 24 26 41 11 30 8 3 33 9 2 6 0 0 3 0 0 0 1 12 9 2 0 0 0 0 1 5 8 20 26 19 25 31 28 23
66 57 28 33 70 12 15 30 19 12 23 73 3 2 0 9 19 11 0 9 17 21 23 15 3 1 7 14 25 33 34 33 33 34 36 29 31 11
96 56 127 9 12 18 9 10 28 26 19 1 11 0 1 31 16 18 1 14 26 18 22 23 32 26 23 19 25 34 26 3 14 13 14 28 40 50
0 4 23 19 21 9 11 0 4 10 18 0 8 0 0 0 50 42 21 14 7 13 47 47 47 22 6 18 23 10 2 9 10 23 27 15 19 14
0 0 9 3 22 22 27 16 21 2 0 17 41 0 0 0 0 45 44 43 46 47 35 30 23 8 7 19 22 1 0 1 9 34 39 15 20 11
0 13 7 18 4 23 48 41 26 3 16 220 6 18 0 0 43 0 24 44 0 2 22 0 9 1 1 1 0 1 3 4 6 4 12 3 3 11
0 0 10 34 43 44 26 20 28 11 6 9 13 20 0 0 6 0 1 0 0 3 0 0 0 0 1 2 1 1 0 11 1 11 6 5 4 3
0 1 0 0 4 20 54 46 27 24 11 6 5 27 14 30 8 12 25 0 0 0 0 0 0 0 2 4 0 0 2 3 11 14 1 2 3 2
0 1 1 0 17 38 46 14 8 16 7 13 6 32 0 12 0 0 10 35 0 0 0 0 0 0 0 1 2 2 3 1 6 7 4 1 1 1
8 2 6 0 0 0 0 0 1 5 12 0 0 12 1 0 1 0 0 0 0 0 0 0 0 0 1 1 1 2 4 4 1 1 0 0 0 0
2 9 4 18 2 0 0 0 0 0 0 0 0 0 0 0 0 0 9 0 1 1 0 0 0 0 1 6 2 1 1 1 0 0 0 0 0 0
10 3 11 7 6 4 3 0 0 0 0 0 0 0 0 0 0 0 7 3 2 11 8 11 4 1 6 4 0 0 0 0 0 0 0 0 0 0
4 1 0 15 4 8 12 7 6 2 1 0 0 0 0 0 0 0 1 4 1 1 1 0 0 0 0 0 0 0 0 0 0 0 0 0 0 0
4 0 5 1 0 0 9 7 0 0 6 0 5 4 0 0 0 0 3 4 2 3 0 0 0 0 0 0 0 0 0 0 0 0 0 0 0 0
0 0 0 0 0 0 1 0 3 0 0 0 0 0 0 0 0 0 0 0 0 0 0 0 0 0 0 0 0 0 0 0 0 0 0 0 0 0
0 0 0 0 0 0 0 0 0 0 0 0 0 0 0 0 0 0 0 0 0 0 0 0 0 0 0 0 0 0 0 0 0 0 0 0 0 0
0 0 0 0 0 0 0 0 0 0 0 0 0 0 0 0 0 0 0 0 0 0 0 0 0 0 0 0 0 0 0 0 0 0 0 0 0 0
0 0 0 0 0 0 0 0 0 0 0 0 0 0 0 0 0 0 0 0 0 0 0 0 0 0 0 0 0 0 0 0 0 0 0 0 0 0
0 0 0 0 0 0 0 0 0 0 0 0 0 0 0 0 0 0 0 0 0 0 0 0 0 0 0 0 0 0 0 0 0 0 0 0 0 0
0 0 0 0 0 0 0 0 0 0 0 0 0 0 0 0 0 0 0 0 0 0 0 0 0 0 0 0 0 0 0 0 0 0 0 0 0 0
0 0 0 0 0 0 0 0 0 0 0 0 0 0 0 0 0 0 0 0 0 0 0 0 0 0 0 0 0 0 0 0 0 0 0 0 0 0

GFSNE_con_mucape_111.txt.gz
CAPE
427 431 422 345 306 181 124 59 65 20 11 0 0 2 8 21 11 10 0 0 0 0 0 0 0 0 0 0 6 7 9 10 37 94 130 153 166 182
420 418 418 378 342 164 156 77 66 12 18 2 0 4 5 6 4 20 1 0 0 0 0 0 0 0 0 0 0 0 0 0 1 5 22 23 3 0
432 404 329 268 176 138 118 185 13 1 13 2 2 4 5 6 8 2 21 2 0 0 0 0 0 0 0 0 0 0 0 0 0 1 2 8 22 34
333 279 157 79 101 108 52 35 22 26 24 6 0 6 0 6 10 6 13 1 0 0 0 0 0 0 0 0 0 0 2 11 14 20 21 27 28 28
85 129 194 174 105 53 59 31 9 29 4 0 1 3 11 12 1 2 30 19 0 0 1 11 15 12 6 7 3 1 11 28 38 25 10 0 0 3
10 6 3 27 146 120 54 30 1 2 12 1 5 10 2 9 1 0 0 0 0 7 20 27 16 15 22 16 20 32 41 40 34 15 0 2 6 4
0 0 0 14 3 23 47 11 5 23 4 4 2 0 0 5 0 0 0 0 7 25 26 44 36 29 33 29 33 19 12 18 11 9 2 0 0 5
0 0 0 0 0 8 7 15 49 2 31 5 0 0 0 0 0 0 0 0 0 28 48 55 32 31 45 52 15 4 3 8 0 1 0 1 5 3
0 0 0 0 0 3 3 5 5 6 19 13 2 1 0 1 15 3 0 0 0 46 53 58 59 57 45 15 10 11 6 3 1 1 0 1 1 3
1 0 0 0 0 0 8 0 11 0 6 44 41 1 8 12 5 5 0 0 0 23 55 54 54 32 18 1 15 11 6 5 2 1 2 2 2 1
0 0 0 0 0 0 0 0 15 26 10 27 9 9 18 20 12 0 0 0 0 13 12 0 0 0 0 0 1 2 4 4 4 4 1 3 1 3
17 8 2 2 1 6 0 0 0 0 0 0 24 26 21 20 6 0 1 5 0 0 17 0 0 0 0 0 0 1 1 1 1 0 2 2 7 8
14 8 6 5 4 2 0 2 1 0 0 0 0 0 0 5 40 22 17 6 0 3 12 0 0 0 0 0 0 1 1 1 1 5 0 0 0 0
0 0 1 10 4 7 6 3 4 2 1 0 1 0 0 4 0 3 25 31 24 0 1 1 0 0 0 0 0 0 0 0 0 0 0 0 0 0
0 0 6 4 9 0 0 0 3 6 1 0 0 0 0 0 0 0 1 1 1 1 1 0 0 0 0 0 1 1 0 0 0 0 0 0 0 0
0 0 0 0 0 5 1 0 0 1 7 1 0 4 0 5 0 0 0 0 0 0 0 1 0 0 0 0 0 0 0 0 0 0 0 0 0 0
0 0 0 0 0 0 0 0 0 0 2 1 0 0 0 1 4 2 4 0 0 0 0 0 0 0 0 0 0 0 0 0 0 0 0 0 0 0
0 0 0 0 0 0 0 0 0 0 0 0 0 0 0 0 0 0 0 0 0 0 0 0 0 0 0 0 0 0 0 0 0 0 0 0 0 0
0 0 0 0 0 0 0 0 0 0 0 0 0 0 0 0 0 0 0 0 0 0 0 0 0 0 0 0 0 0 0 0 0 0 0 0 0 0
0 0 0 0 0 0 0 0 0 0 0 0 0 0 0 0 0 0 0 0 0 0 0 0 0 0 0 0 0 0 0 0 0 0 0 0 0 0
0 0 0 0 0 0 0 0 0 0 0 0 0 0 0 0 0 0 0 0 0 0 0 0 0 0 0 0 0 0 0 0 0 0 0 0 0 0
0 0 0 0 0 0 0 0 0 0 0 0 0 0 0 0 0 0 0 0 0 0 0 0 0 0 0 0 0 0 0 0 0 0 0 0 0 0
0 0 0 0 0 0 0 0 0 0 0 0 0 0 0 0 0 0 0 0 0 0 0 0 0 0 0 0 0 0 0 0 0 0 0 0 0 0

GFSNE_con_mucape_114.txt.gz
CAPE
1154 1521 1311 1205 1023 922 614 448 408 230 17 7 70 13 0 1 5 40 46 9 0 0 0 0 0 3 9 10 7 8 10 13 18 14 16 49 108 163
1059 784 818 864 793 841 629 462 244 410 134 25 84 91 8 9 9 11 42 42 12 0 0 0 0 0 0 2 8 11 11 10 11 11 12 33 71 113
730 602 585 597 416 333 362 382 469 202 68 11 19 52 0 0 1 7 18 52 45 0 0 0 0 0 0 0 0 0 0 1 4 7 7 12 15 3
406 407 359 425 441 568 608 383 397 230 104 85 39 11 9 0 11 0 5 1 10 10 0 0 0 0 0 0 0 0 0 0 0 0 0 0 12 15
436 299 438 411 433 488 282 227 166 105 120 35 8 18 5 15 6 5 5 9 7 29 1 0 0 0 0 0 0 0 0 0 0 0 0 9 34 28
246 219 108 85 83 120 112 46 25 47 72 15 22 3 33 2 2 0 1 13 3 0 1 0 0 0 0 0 0 0 0 4 1 0 0 24 47 39
180 0 1 0 0 0 0 23 130 38 32 16 41 4 9 2 1 0 0 0 5 0 4 2 0 0 1 6 10 13 13 11 8 19 24 49 50 29
0 0 0 0 0 0 0 0 0 17 11 42 0 4 2 0 0 0 0 0 0 0 1 0 27 59 57 46 39 52 50 31 31 46 40 34 32 22
0 0 0 0 0 0 0 0 0 17 2 2 4 4 10 0 5 0 0 0 0 0 1 0 0 42 79 86 77 68 60 49 53 35 6 17 7 7
0 0 1 0 0 0 0 0 0 0 1 6 1 0 4 10 5 1 9 10 10 1 1 0 0 0 33 65 69 61 69 69 50 20 5 4 6 7
3 17 1 0 0 0 0 0 0 0 0 10 11 0 2 4 0 5 2 0 0 0 0 0 0 26 29 32 18 27 63 21 18 14 4 9 10 2
0 0 0 1 0 0 0 1 0 0 0 0 0 0 0 4 1 0 0 2 0 0 0 0 0 0 0 22 28 18 1 18 2 19 1 1 1 1
0 2 0 2 3 3 6 0 0 0 0 0 1 0 0 0 0 19 0 0 0 0 0 0 0 0 0 0 2 9 1 0 1 1 1 1 1 0
0 0 0 0 13 6 0 0 5 7 6 0 0 1 0 0 0 0 9 0 4 0 26 0 0 0 0 0 0 0 0 0 1 1 0 0 0 0
0 0 0 0 0 1 0 0 8 8 2 0 4 1 4 0 0 0 0 0 3 8 1 1 0 0 0 0 0 0 0 0 0 0 0 0 0 0
0 0 0 0 0 0 0 0 0 1 0 2 1 0 0 4 0 0 0 0 0 0 0 0 0 0 0 0 0 0 0 0 0 0 0 0 0 0
0 0 0 0 0 0 0 0 0 0 0 0 0 0 0 0 2 2 5 1 0 0 0 0 0 0 0 0 0 0 0 0 0 0 0 0 0 0
0 0 0 0 0 0 0 0 0 0 0 0 0 0 0 0 0 0 0 0 0 0 0 0 0 0 0 0 0 0 0 0 0 0 0 0 0 0
0 0 0 0 0 0 0 0 0 0 0 0 0 0 0 0 0 0 0 0 0 0 0 0 0 0 0 0 0 0 0 0 0 0 0 0 0 0
0 0 0 0 0 0 0 0 0 0 0 0 0 0 0 0 0 0 0 0 0 0 0 0 0 0 0 0 0 0 0 0 0 0 0 0 0 0
0 0 0 0 0 0 0 0 0 0 0 0 0 0 0 0 0 0 0 0 0 0 0 0 0 0 0 0 0 0 0 0 0 0 0 0 0 0
0 0 0 0 0 0 0 0 0 0 0 0 0 0 0 0 0 0 0 0 0 0 0 0 0 0 0 0 0 0 0 0 0 0 0 0 0 0
0 0 0 0 0 0 0 0 0 0 0 0 0 0 0 0 0 0 0 0 0 0 0 0 0 0 0 0 0 0 0 0 0 0 0 0 0 0

GFSNE_con_mucape_117.txt.gz
CAPE
1282 1191 1752 1730 1786 1523 1232 678 979 886 682 337 306 314 138 0 1 0 0 0 5 1 0 0 6 12 7 6 11 13 9 14 15 11 16 21 31 40
1134 1181 1195 1777 1584 1529 1246 1267 1129 923 741 702 219 249 286 34 0 0 0 1 11 8 2 0 0 2 5 9 10 10 10 6 8 9 16 14 21 27
973 1016 1188 1574 1310 727 602 923 941 717 371 540 554 377 548 231 15 4 14 5 2 19 26 13 0 0 0 0 9 10 12 6 7 5 8 12 15 22
1075 813 948 1098 931 726 460 325 319 394 378 262 446 376 294 458 180 5 0 2 1 3 18 42 6 0 0 0 0 0 15 14 15 14 13 16 28 32
689 779 960 558 346 294 466 569 607 288 431 308 134 86 220 201 64 5 23 9 1 5 6 15 36 0 0 0 0 0 0 2 3 2 3 5 3 0
758 533 344 232 166 106 103 117 160 308 99 124 112 24 34 42 61 8 0 2 9 3 0 4 20 10 1 0 0 0 0 0 1 3 2 0 0 0
307 288 134 87 60 125 84 1 2 4 16 34 18 14 12 10 3 50 28 9 0 0 2 0 5 1 4 2 0 0 0 6 6 5 8 4 5 1
101 105 112 123 132 5 0 0 0 0 0 0 2 22 8 11 4 18 4 3 5 6 0 2 6 11 12 4 1 0 0 0 0 3 8 21 27 19
90 35 1 20 14 16 1 0 0 0 0 0 0 0 13 13 9 17 9 0 5 5 8 0 1 9 20 12 2 14 37 38 40 36 35 64 70 76
9 3 14 34 36 3 3 1 0 0 0 0 0 1 2 3 12 2 0 0 0 5 10 0 2 3 9 3 4 41 66 105 100 108 119 104 91 90
0 9 27 19 21 3 0 0 0 0 0 0 0 0 0 0 5 0 0 1 1 4 6 0 3 7 9 1 30 42 57 31 86 96 60 88 74 59
0 2 3 3 4 11 0 2 0 0 0 0 0 0 0 0 0 0 0 0 0 0 0 1 14 3 0 0 21 1 1 5 13 4 21 65 54 7
2 1 0 0 0 0 0 0 3 0 0 0 0 0 0 0 0 0 0 0 0 0 0 0 0 0 0 0 0 0 1 0 1 1 1 3 26 1
0 0 0 0 0 0 4 4 3 9 0 0 0 6 4 0 1 1 0 0 0 0 14 10 18 0 0 0 0 0 0 0 1 0 1 1 0 1
0 0 0 0 0 0 0 0 0 0 0 0 1 0 0 0 0 5 0 0 0 0 1 1 0 0 0 0 0 0 0 0 0 0 0 0 0 0
0 0 0 0 0 0 0 0 0 0 0 1 0 1 0 0 0 0 0 0 0 0 1 1 4 0 0 0 0 0 0 0 0 0 0 0 0 0
0 0 0 0 0 0 0 0 0 0 0 0 0 0 0 0 0 0 0 0 0 0 0 0 0 0 0 0 0 0 0 0 0 0 0 0 0 0
0 0 0 0 0 0 0 0 0 0 0 0 0 0 0 0 0 0 0 0 0 0 0 0 0 0 0 0 0 0 0 0 0 0 0 0 0 0
0 0 0 0 0 0 0 0 0 0 0 0 0 0 0 0 0 0 0 0 0 0 0 0 0 0 0 0 0 0 0 0 0 0 0 0 0 0
0 0 0 0 0 0 0 0 0 0 0 0 0 0 0 0 0 0 0 0 0 0 0 0 0 0 0 0 0 0 0 0 0 0 0 0 0 0
0 0 0 0 0 0 0 0 0 0 0 0 0 0 0 0 0 0 0 0 0 0 0 0 0 0 0 0 0 0 0 0 0 0 0 0 0 0
0 0 0 0 0 0 0 0 0 0 0 0 0 0 0 0 0 0 0 0 0 0 0 0 0 0 0 0 0 0 0 0 0 0 0 0 0 0
0 0 0 0 0 0 0 0 0 0 0 0 0 0 0 0 0 0 0 0 0 0 0 0 0 0 0 0 0 0 0 0 0 0 0 0 0 0

GFSNE_con_mucape_123.txt.gz
CAPE
281 580 770 1184 1058 1011 1112 973 658 232 335 318 361 397 457 467 357 261 119 27 0 0 0 0 6 11 7 4 3 0 0 0 0 1 6 22 25 31
720 778 737 976 1143 1059 1096 979 698 396 140 174 297 306 464 463 363 248 183 98 2 0 0 0 2 10 18 8 10 10 2 0 1 0 1 4 22 28
923 949 865 968 1589 1295 1295 1021 913 791 425 230 266 277 296 379 298 225 207 163 44 0 1 0 3 2 19 33 15 21 20 21 2 0 4 4 17 19
987 1101 834 888 1203 1251 1188 797 744 692 403 283 212 256 182 136 161 182 173 130 67 19 3 10 0 0 0 0 0 25 20 47 15 1 5 3 3 4
1193 1075 919 814 757 1073 1097 783 782 636 366 278 200 176 132 140 100 102 92 76 45 30 17 15 5 0 0 0 6 13 21 39 33 13 10 9 8 3
721 828 812 732 685 882 1008 972 770 551 269 248 222 117 109 126 81 74 61 64 58 43 1 3 20 13 13 2 9 28 33 3 17 36 20 43 24 10
563 591 560 609 604 695 734 686 1128 315 182 150 161 114 102 59 48 63 12 5 2 2 20 8 3 4 15 16 13 29 38 26 4 5 70 76 59 25
517 246 89 484 594 423 499 439 325 309 193 48 32 33 42 43 24 23 0 7 16 2 40 2 0 7 10 15 14 8 23 10 16 4 11 52 76 69
56 88 104 287 386 352 386 255 259 193 105 21 39 56 14 61 0 0 0 0 9 1 8 16 10 4 2 6 10 9 17 4 15 26 50 9 45 63
85 24 138 23 151 233 227 313 105 27 1 11 18 1 0 0 0 0 0 0 0 0 3 4 6 4 7 19 9 8 10 15 15 11 19 10 36 19
0 23 46 0 0 0 70 33 6 1 5 0 3 10 2 2 0 0 0 0 0 0 0 1 2 0 0 5 9 6 0 4 12 10 18 15 3 3
0 0 0 0 0 0 0 0 0 0 0 0 0 0 1 10 22 6 0 0 0 0 0 0 0 0 0 0 0 0 11 4 7 4 2 7 20 9
0 0 0 0 0 0 0 0 0 0 0 0 1 5 1 0 14 13 11 4 0 0 0 0 0 0 0 0 0 0 0 3 0 0 0 0 5 4
0 0 0 0 0 0 0 0 0 0 0 0 0 0 0 0 0 1 2 2 4 11 9 0 0 0 0 0 0 0 0 1 1 0 0 0 0 2
0 0 0 0 0 0 0 0 0 0 0 0 0 0 0 0 0 0 0 0 0 1 8 6 0 0 0 0 0 0 0 0 0 0 0 0 0 0
0 0 0 0 0 0 0 0 0 0 0 0 0 0 0 0 0 0 0 0 0 0 2 6 10 5 0 0 0 0 0 0 0 0 0 0 0 0
0 0 0 0 0 0 0 0 0 0 0 0 0 0 0 0 0 0 0 0 0 0 0 0 1 0 0 3 0 0 0 1 1 0 0 0 0 0
0 0 0 0 0 0 0 0 0 0 0 0 0 0 0 0 0 0 0 0 0 0 0 0 0 0 0 2 1 1 3 1 0 0 0 0 0 0
0 0 0 0 0 0 0 0 0 0 0 0 0 0 0 0 0 0 0 0 0 0 0 0 0 0 0 0 0 0 0 0 0 0 0 0 0 0
0 0 0 0 0 0 0 0 0 0 0 0 0 0 0 0 0 0 0 0 0 0 0 0 0 0 0 0 0 0 0 0 0 0 0 0 0 0
0 0 0 0 0 0 0 0 0 0 0 0 0 0 0 0 0 0 0 0 0 0 0 0 0 0 0 0 0 0 0 0 0 0 0 0 0 0
0 0 0 0 0 0 0 0 0 0 0 0 0 0 0 0 0 0 0 0 0 0 0 0 0 0 0 0 0 0 0 0 0 0 0 0 0 0
0 0 0 0 0 0 0 0 0 0 0 0 0 0 0 0 0 0 0 0 0 0 0 0 0 0 0 0 0 0 0 0 0 0 0 0 0 0

GFSNE_con_mucape_126.txt.gz
CAPE
319 224 57 0 18 467 727 580 521 250 387 614 592 628 706 572 433 352 321 263 167 126 15 0 0 0 0 13 22 16 13 14 0 0 0 7 23 40
362 110 23 74 2 205 364 684 600 389 175 306 434 372 455 481 476 432 327 261 191 94 49 0 0 0 0 1 25 35 30 28 5 0 0 0 2 10
467 282 209 148 103 15 0 354 943 678 426 222 248 272 331 348 388 350 354 287 222 137 72 9 0 1 2 3 11 16 36 41 22 0 0 0 0 0
617 471 356 332 168 29 2 164 397 749 428 282 284 201 238 279 360 319 282 136 127 146 123 28 7 2 0 1 11 11 16 32 33 12 7 3 0 0
330 325 97 3 59 498 447 521 491 582 499 371 288 270 244 234 197 130 109 69 91 104 142 90 9 3 6 1 0 0 0 19 24 14 6 29 12 0
55 75 0 13 9 485 521 513 468 485 535 392 310 250 174 171 143 56 31 54 51 61 76 73 47 14 19 17 13 3 0 0 0 0 7 21 17 4
17 37 125 158 291 571 560 522 487 435 329 378 276 241 125 102 82 76 45 26 42 30 3 7 9 8 0 1 3 1 0 0 3 2 10 6 12 11
63 63 40 65 176 233 471 529 579 446 393 358 264 130 61 45 39 32 34 17 6 0 0 3 6 3 3 3 0 0 4 19 12 19 41 4 10 2
9 12 0 19 48 35 146 328 414 304 293 235 260 172 39 26 28 24 17 48 10 1 0 0 0 11 9 5 0 8 20 15 25 15 8 12 20 17
0 0 8 0 11 8 12 0 71 44 62 166 98 131 25 17 46 2 0 0 0 0 0 0 0 0 2 3 1 1 0 1 13 20 15 15 14 10
0 0 0 0 0 0 0 0 0 0 1 1 4 0 20 2 5 1 0 0 0 0 0 0 0 0 0 0 8 2 2 0 0 2 5 17 6 6
0 0 0 0 0 0 0 0 0 0 0 0 0 0 1 0 3 0 0 4 6 0 0 0 0 0 0 0 0 0 0 0 0 3 13 5 33 3
0 0 0 0 0 0 0 0 0 0 0 0 0 0 0 0 0 0 0 0 0 1 4 4 2 0 0 0 0 0 0 0 0 0 13 7 3 0
0 0 0 0 0 0 0 0 0 0 0 0 0 0 0 0 0 0 0 0 1 2 12 7 0 0 0 0 0 0 0 0 0 0 2 3 3 3
0 0 0 0 0 0 0 0 0 0 0 0 0 0 0 0 0 0 0 0 0 0 0 0 0 0 0 0 0 0 0 0 0 0 0 2 4 2
0 0 0 0 0 0 0 0 0 0 0 0 0 0 0 0 0 0 0 0 0 0 0 0 0 0 0 0 0 0 0 0 0 0 8 9 1 0
0 0 0 0 0 0 0 0 0 0 0 0 0 0 0 0 0 0 0 0 0 0 0 0 0 0 0 0 0 0 0 0 4 0 2 3 5 2
0 0 0 0 0 0 0 0 0 0 0 0 0 0 0 0 0 0 0 0 0 0 0 0 0 0 0 0 0 0 0 0 2 7 3 0 3 2
0 0 0 0 0 0 0 0 0 0 0 0 0 0 0 0 0 0 0 0 0 0 0 0 0 0 0 0 0 0 0 0 3 3 2 1 0 0
0 0 0 0 0 0 0 0 0 0 0 0 0 0 0 0 0 0 0 0 0 0 0 0 0 0 0 0 0 0 0 0 0 0 0 0 0 0
0 0 0 0 0 0 0 0 0 0 0 0 0 0 0 0 0 0 0 0 0 0 0 0 0 0 0 0 0 0 0 0 0 0 0 0 0 0
0 0 0 0 0 0 0 0 0 0 0 0 0 0 0 0 0 0 0 0 0 0 0 0 0 0 0 0 0 0 0 0 0 0 0 0 0 0
0 0 0 0 0 0 0 0 0 0 0 0 0 0 0 0 0 0 0 0 0 0 0 0 0 0 0 0 0 0 0 0 0 0 0 0 0 0

GFSNE_con_mucape_132.txt.gz
CAPE
25 25 9 64 153 181 88 93 40 2 0 0 15 40 155 218 304 520 722 810 624 494 333 336 161 176 133 88 60 37 3 23 23 11 0 0 0 10
21 66 130 108 197 254 213 176 105 9 0 8 0 16 97 138 192 264 310 487 572 514 413 293 218 200 160 101 71 34 6 1 23 10 5 23 25 16
0 15 22 89 246 239 253 201 124 9 3 0 42 5 69 78 147 239 225 225 278 297 369 240 246 208 188 125 81 34 23 0 13 11 10 2 21 55
5 13 33 71 185 196 221 170 73 62 52 3 0 50 68 46 112 147 128 172 146 183 296 273 271 245 183 117 64 23 10 2 2 10 16 21 29 35
6 7 16 39 122 250 187 180 155 116 120 49 3 121 140 126 126 78 51 90 491 256 235 300 325 257 215 123 64 48 34 2 1 6 8 24 36 38
4 9 8 7 12 115 113 80 92 114 92 23 15 215 30 36 39 29 15 28 138 252 209 184 198 200 223 122 91 71 45 11 0 0 0 4 13 27
24 15 2 9 12 56 131 136 102 154 186 149 73 17 8 11 2 22 46 41 87 202 344 249 72 84 67 82 74 89 74 48 21 0 0 7 9 11
10 14 19 70 62 100 129 91 83 122 123 92 127 192 50 10 28 4 60 113 73 92 130 70 37 38 33 38 36 55 53 51 33 20 7 1 6 10
6 11 35 13 1 5 4 1 0 2 40 39 48 68 85 58 54 43 75 150 145 72 105 76 36 29 57 41 23 17 19 21 28 7 4 1 10 10
0 0 0 1 6 3 2 1 0 3 8 24 8 32 26 34 20 37 15 72 57 103 30 125 60 53 45 7 3 14 1 0 0 0 0 0 0 18
0 0 0 0 0 0 1 5 7 5 6 3 16 21 4 3 7 0 0 3 20 38 18 7 71 75 64 28 2 0 2 0 0 0 0 0 0 4
0 0 0 0 0 0 0 0 0 0 0 0 0 0 0 0 1 0 0 10 15 0 0 0 0 0 0 0 0 4 5 6 1 0 0 0 0 0
0 0 0 0 0 0 0 0 0 0 0 5 1 0 0 0 0 0 0 0 0 0 0 0 0 0 0 0 0 3 0 9 4 0 0 0 0 0
0 0 0 0 0 0 0 0 0 0 0 0 0 0 0 0 0 0 0 0 0 0 0 0 0 0 0 0 0 1 9 12 3 2 6 2 2 0
0 0 0 0 0 0 0 0 0 0 0 0 0 0 0 0 0 0 0 0 0 0 0 0 0 0 0 0 0 0 0 0 8 8 6 0 0 0
0 0 0 0 0 0 0 0 0 0 0 0 0 0 0 0 0 0 0 0 0 0 0 0 0 0 0 0 0 0 0 3 6 9 1 6 8 3
0 0 0 0 0 0 0 0 0 0 0 0 0 0 0 0 0 0 0 0 0 0 0 0 0 0 0 0 0 0 0 0 0 0 2 3 0 0
0 0 0 0 0 0 0 0 0 0 0 0 0 0 0 0 0 0 0 0 0 0 0 0 0 0 0 0 0 0 0 0 0 0 0 0 0 0
0 0 0 0 0 0 0 0 0 0 0 0 0 0 0 0 0 0 0 0 0 0 0 0 0 0 0 0 0 0 0 0 0 0 0 0 0 0
0 0 0 0 0 0 0 0 0 0 0 0 0 0 0 0 0 0 0 0 0 0 0 0 0 0 0 0 0 0 0 0 0 0 0 0 0 0
0 0 0 0 0 0 0 0 0 0 0 0 0 0 0 0 0 0 0 0 0 0 0 0 0 0 0 0 0 0 0 0 0 0 0 0 0 0
0 0 0 0 0 0 0 0 0 0 0 0 0 0 0 0 0 0 0 0 0 0 0 0 0 0 0 0 0 0 0 0 0 0 0 0 0 0
0 0 0 0 0 0 0 0 0 0 0 0 0 0 0 0 0 0 0 0 0 0 0 0 0 0 0 0 0 0 0 0 0 0 0 0 0 0

GFSNE_con_mucape_135.txt.gz
CAPE
0 0 35 54 92 274 205 180 107 54 36 54 65 87 182 224 210 250 219 142 149 203 592 615 448 342 263 192 220 193 115 57 10 3 4 1 2 15
0 0 45 20 79 124 205 158 105 89 89 5 1 21 33 1 81 265 328 106 102 140 220 542 506 422 289 211 136 167 123 62 9 17 6 25 19 0
0 7 0 1 8 50 305 161 145 44 5 13 44 53 22 61 129 262 218 145 106 109 139 234 383 413 261 215 135 145 111 88 34 18 2 5 21 10
3 1 2 0 0 8 26 87 215 217 302 162 182 168 224 139 136 289 139 146 125 71 109 103 186 258 252 177 172 163 137 124 79 44 31 4 14 4
8 5 6 5 4 7 30 28 88 280 221 327 325 248 392 362 279 237 231 277 193 84 58 68 107 133 220 186 176 171 159 152 98 48 12 8 25 18
6 9 10 7 10 11 11 15 76 117 222 248 186 272 379 328 365 296 192 141 139 74 31 51 220 166 198 202 198 188 187 123 88 47 36 22 2 18
7 14 11 20 20 20 19 12 26 79 100 109 120 150 162 108 63 16 52 119 137 78 19 6 77 131 133 123 106 181 124 117 71 64 51 39 9 5
2 0 6 0 13 12 25 23 17 43 61 61 161 82 44 29 26 22 36 20 18 12 9 13 23 65 145 77 75 83 130 106 77 71 83 39 18 3
0 1 1 3 3 0 0 22 45 37 58 43 50 43 29 21 12 46 50 45 34 31 14 19 44 60 107 125 79 75 69 88 67 63 60 59 37 33
0 0 0 0 2 6 7 0 0 0 0 1 9 17 4 0 0 3 2 29 0 1 37 28 12 24 62 78 65 63 62 42 51 44 22 15 19 21
0 0 0 0 0 0 0 0 0 0 0 3 3 5 2 6 2 2 5 7 6 1 0 3 6 5 10 34 57 47 53 58 38 9 24 11 1 5
0 0 0 0 0 0 0 0 0 0 0 0 0 0 0 0 5 4 1 0 31 2 0 0 0 0 0 34 6 8 11 11 23 36 0 0 3 0
0 0 0 0 0 0 0 0 0 0 0 0 1 0 0 0 0 0 0 0 0 0 0 0 0 0 0 6 10 1 1 0 3 5 8 0 2 5
0 0 0 0 0 0 0 0 0 0 0 0 0 0 0 0 0 0 0 0 0 0 0 0 0 0 0 0 1 0 0 0 1 0 1 0 7 1
0 0 0 0 0 0 0 0 0 0 0 0 0 0 0 0 0 0 0 0 0 0 0 0 0 0 0 0 0 0 0 0 0 0 0 0 1 2
0 0 0 0 0 0 0 0 0 0 0 0 0 0 0 0 0 0 0 0 0 0 0 0 0 0 0 0 0 0 0 0 0 0 0 0 0 0
0 0 0 0 0 0 0 0 0 0 0 0 0 0 0 0 0 0 0 0 0 0 0 0 0 0 0 0 0 0 0 0 0 0 0 0 0 0
0 0 0 0 0 0 0 0 0 0 0 0 0 0 0 0 0 0 0 0 0 0 0 0 0 0 0 0 0 0 0 0 0 0 0 0 0 0
0 0 0 0 0 0 0 0 0 0 0 0 0 0 0 0 0 0 0 0 0 0 0 0 0 0 0 0 0 0 0 0 0 0 0 0 0 0
0 0 0 0 0 0 0 0 0 0 0 0 0 0 0 0 0 0 0 0 0 0 0 0 0 0 0 0 0 0 0 0 0 0 0 0 0 0
0 0 0 0 0 0 0 0 0 0 0 0 0 0 0 0 0 0 0 0 0 0 0 0 0 0 0 0 0 0 0 0 0 0 0 0 0 0
0 0 0 0 0 0 0 0 0 0 0 0 0 0 0 0 0 0 0 0 0 0 0 0 0 0 0 0 0 0 0 0 0 0 0 0 0 0
0 0 0 0 0 0 0 0 0 0 0 0 0 0 0 0 0 0 0 0 0 0 0 0 0 0 0 0 0 0 0 0 0 0 0 0 0 0

GFSNE_con_mucape_138.txt.gz
CAPE
0 0 0 50 48 53 179 228 702 376 194 45 34 121 451 1102 1263 1338 1144 451 364 275 244 264 304 436 560 480 333 404 304 170 116 68 35 6 5 10
0 0 0 27 33 17 7 338 176 99 60 19 47 46 150 175 28 200 414 215 175 200 177 157 178 211 409 520 512 274 251 223 141 102 54 18 12 17
0 0 0 9 20 70 18 13 257 476 251 142 172 159 74 41 44 67 92 141 181 157 180 147 134 170 264 423 497 353 290 181 182 136 99 56 23 6
0 2 10 7 6 0 0 1 5 12 184 324 186 176 73 128 77 101 87 225 486 196 165 136 146 155 231 346 420 424 329 202 146 144 124 89 34 35
8 6 6 3 2 1 0 0 0 1 36 134 86 70 18 106 108 202 186 262 188 154 150 137 77 68 75 153 262 327 288 233 178 141 114 85 27 11
9 11 9 5 4 0 0 0 8 2 17 19 56 147 122 73 88 133 192 370 364 190 132 97 61 49 75 75 107 201 260 226 190 158 132 89 42 31
1 5 6 5 13 8 4 4 15 11 0 61 89 120 132 136 133 147 117 116 100 62 66 172 55 3 26 39 51 82 157 185 199 166 130 127 99 56
0 0 1 1 0 9 1 1 0 1 5 3 29 27 11 97 108 60 72 80 101 38 42 49 13 10 4 17 9 28 72 156 138 139 140 147 104 66
0 0 0 0 0 0 0 0 11 2 2 0 0 2 11 0 5 43 78 61 90 35 5 9 16 14 12 5 5 23 72 69 84 100 93 109 99 68
0 0 0 0 0 0 0 0 0 0 0 0 0 0 0 13 11 0 0 0 4 0 12 2 0 7 7 1 7 21 85 103 93 88 92 70 75 77
0 0 0 0 0 0 0 0 0 0 0 0 0 0 0 0 0 0 0 0 7 2 0 2 0 2 4 4 12 36 98 114 89 96 74 83 64 92
0 0 0 0 0 0 0 0 0 0 0 0 0 0 0 0 0 0 0 0 0 0 0 0 0 0 2 0 5 17 14 34 43 25 8 2 30 67
0 0 0 0 0 0 0 0 0 0 0 0 0 0 0 0 0 0 0 0 0 0 0 0 0 0 0 0 0 4 0 1 4 9 10 25 24 27
0 0 0 0 0 0 0 0 0 0 0 0 0 0 0 0 0 0 0 0 0 0 0 0 0 0 0 1 0 0 0 0 0 0 2 0 2 5
0 0 0 0 0 0 0 0 0 0 0 0 0 0 0 0 0 0 0 0 0 0 0 0 0 0 0 0 0 0 0 0 0 0 0 0 0 0
0 0 0 0 0 0 0 0 0 0 0 0 0 0 0 0 0 0 0 0 0 0 0 0 0 0 0 0 0 0 0 0 0 0 0 0 0 0
0 0 0 0 0 0 0 0 0 0 0 0 0 0 0 0 0 0 0 0 0 0 0 0 0 0 0 0 0 0 0 0 0 0 0 0 0 0
0 0 0 0 0 0 0 0 0 0 0 0 0 0 0 0 0 0 0 0 0 0 0 0 0 0 0 0 0 0 0 0 0 0 0 0 0 0
0 0 0 0 0 0 0 0 0 0 0 0 0 0 0 0 0 0 0 0 0 0 0 0 0 0 0 0 0 0 0 0 0 0 0 0 0 0
0 0 0 0 0 0 0 0 0 0 0 0 0 0 0 0 0 0 0 0 0 0 0 0 0 0 0 0 0 0 0 0 0 0 0 0 0 0
0 0 0 0 0 0 0 0 0 0 0 0 0 0 0 0 0 0 0 0 0 0 0 0 0 0 0 0 0 0 0 0 0 0 0 0 0 0
0 0 0 0 0 0 0 0 0 0 0 0 0 0 0 0 0 0 0 0 0 0 0 0 0 0 0 0 0 0 0 0 0 0 0 0 0 0
0 0 0 0 0 0 0 0 0 0 0 0 0 0 0 0 0 0 0 0 0 0 0 0 0 0 0 0 0 0 0 0 0 0 0 0 0 0

GFSNE_con_mucape_141.txt.gz
CAPE
0 0 0 0 0 45 44 45 71 101 126 656 625 757 1006 1228 1253 1343 891 690 623 595 684 676 621 592 514 463 446 422 399 375 326 251 198 123 82 17
0 0 0 0 0 40 80 127 360 247 48 363 439 591 467 344 325 349 427 651 434 467 313 262 252 344 323 358 407 454 410 333 323 320 251 178 103 47
0 0 0 0 0 20 83 100 208 175 77 22 457 400 537 314 132 116 84 57 57 82 42 119 152 163 118 116 154 192 304 422 395 304 280 240 141 86
0 0 0 0 0 0 4 14 13 13 4 3 1 200 167 162 121 84 100 35 64 23 56 55 54 51 164 143 148 145 185 328 385 404 306 263 208 128
3 5 4 6 6 5 9 7 8 8 0 7 18 16 93 100 72 136 95 110 25 32 67 95 143 168 149 99 88 81 187 247 291 279 279 275 252 188
8 9 6 5 6 5 6 2 5 6 36 33 3 3 13 0 37 5 0 0 4 24 54 40 72 145 101 55 50 23 60 117 193 283 233 234 194 191
0 0 1 2 14 8 5 10 13 12 6 17 11 0 14 5 0 0 0 0 40 39 108 111 151 104 71 79 55 34 45 72 65 95 157 205 164 140
0 0 0 0 0 3 26 6 3 3 18 38 10 13 9 2 0 7 18 19 63 67 72 27 102 42 62 35 41 27 52 22 42 57 67 112 107 112
0 0 0 0 0 0 0 0 0 3 6 4 5 4 0 1 0 1 52 11 9 13 0 0 0 5 2 27 21 23 5 3 1 10 23 65 107 104
0 0 0 0 0 0 0 0 0 0 0 0 0 0 0 0 0 0 0 0 0 2 0 0 0 3 14 4 3 3 4 13 13 1 5 23 46 78
0 0 0 0 0 0 0 0 0 0 0 0 0 0 0 0 0 0 0 0 0 0 0 0 0 1 0 0 0 0 0 0 5 0 2 4 54 66
0 0 0 0 0 0 0 0 0 0 0 0 0 0 0 0 0 0 0 0 0 0 0 0 0 0 0 0 0 0 0 0 0 0 2 25 73 83
0 0 0 0 0 0 0 0 0 0 0 0 0 0 0 0 0 0 0 0 0 0 0 0 0 0 0 0 0 0 0 0 0 0 0 0 7 74
0 0 0 0 0 0 0 0 0 0 0 0 0 0 0 0 0 0 0 0 0 0 0 0 0 0 0 0 0 0 0 0 0 0 0 2 4 0
0 0 0 0 0 0 0 0 0 0 0 0 0 0 0 0 0 0 0 0 0 0 0 0 0 0 0 0 0 0 0 0 0 0 0 0 0 0
0 0 0 0 0 0 0 0 0 0 0 0 0 0 0 0 0 0 0 0 0 0 0 0 0 0 0 0 0 0 0 0 0 0 0 0 0 0
0 0 0 0 0 0 0 0 0 0 0 0 0 0 0 0 0 0 0 0 0 0 0 0 0 0 0 0 0 0 0 0 0 0 0 0 0 0
0 0 0 0 0 0 0 0 0 0 0 0 0 0 0 0 0 0 0 0 0 0 0 0 0 0 0 0 0 0 0 0 0 0 0 0 0 0
0 0 0 0 0 0 0 0 0 0 0 0 0 0 0 0 0 0 0 0 0 0 0 0 0 0 0 0 0 0 0 0 0 0 0 0 0 0
0 0 0 0 0 0 0 0 0 0 0 0 0 0 0 0 0 0 0 0 0 0 0 0 0 0 0 0 0 0 0 0 0 0 0 0 0 0
0 0 0 0 0 0 0 0 0 0 0 0 0 0 0 0 0 0 0 0 0 0 0 0 0 0 0 0 0 0 0 0 0 0 0 0 0 0
0 0 0 0 0 0 0 0 0 0 0 0 0 0 0 0 0 0 0 0 0 0 0 0 0 0 0 0 0 0 0 0 0 0 0 0 0 0
0 0 0 0 0 0 0 0 0 0 0 0 0 0 0 0 0 0 0 0 0 0 0 0 0 0 0 0 0 0 0 0 0 0 0 0 0 0

GFSNE_con_mucape_144.txt.gz
CAPE
0 0 0 0 0 0 0 0 0 0 1 106 124 190 487 730 772 752 429 490 450 566 808 737 732 735 797 801 690 573 479 524 453 419 315 249 205 158
0 0 0 0 0 0 0 0 30 5 8 1 65 99 177 173 298 427 425 426 538 423 418 539 692 667 436 374 501 487 459 464 487 474 319 285 289 230
0 0 0 0 0 0 0 0 32 31 30 25 74 78 5 25 2 182 221 211 235 270 252 300 274 228 139 128 98 113 253 323 388 447 447 390 351 323
0 0 0 0 0 0 0 0 0 17 15 55 54 33 1 0 21 42 141 71 47 21 7 3 41 4 32 24 28 34 56 64 65 106 161 421 476 243
5 6 8 8 4 1 1 0 0 6 10 10 13 15 5 0 1 32 55 152 50 14 13 6 0 4 31 25 19 65 89 78 58 37 56 158 229 249
3 0 0 8 26 23 6 6 4 4 7 6 33 31 15 3 4 2 12 42 10 37 21 4 17 24 5 8 4 26 55 57 37 31 57 102 148 182
0 0 0 0 9 5 16 12 6 6 8 12 16 12 22 12 4 13 4 0 14 3 2 7 2 3 23 19 9 11 35 34 11 22 30 38 91 133
0 0 0 0 0 0 0 0 2 7 15 13 7 2 2 2 1 2 0 0 13 0 0 0 1 0 0 5 48 40 45 12 59 31 2 43 56 128
0 0 0 0 0 0 0 0 0 0 5 2 1 2 3 3 2 3 1 0 0 1 1 1 0 3 1 1 2 8 14 17 18 14 18 33 28 68
0 0 0 0 0 0 0 0 0 0 0 0 0 0 0 0 0 0 0 0 0 0 0 0 0 0 0 0 0 0 0 0 1 10 10 6 16 15
0 0 0 0 0 0 0 0 0 0 0 0 0 0 0 0 0 0 0 0 0 0 0 0 0 0 0 0 0 0 0 0 0 0 0 1 3 6
0 0 0 0 0 0 0 0 0 0 0 0 0 0 0 0 0 0 0 0 0 0 0 0 0 0 0 0 0 0 0 0 0 0 0 0 0 0
0 0 0 0 0 0 0 0 0 0 0 0 0 0 0 0 0 0 0 0 0 0 0 0 0 0 0 0 0 0 0 0 0 0 0 0 0 0
0 0 0 0 0 0 0 0 0 0 0 0 0 0 0 0 0 0 0 0 0 0 0 0 0 0 0 0 0 0 0 0 0 0 0 0 0 0
0 0 0 0 0 0 0 0 0 0 0 0 0 0 0 0 0 0 0 0 0 0 0 0 0 0 0 0 0 0 0 0 0 0 0 0 0 0
0 0 0 0 0 0 0 0 0 0 0 0 0 0 0 0 0 0 0 0 0 0 0 0 0 0 0 0 0 0 0 0 0 0 0 0 0 0
0 0 0 0 0 0 0 0 0 0 0 0 0 0 0 0 0 0 0 0 0 0 0 0 0 0 0 0 0 0 0 0 0 0 0 0 0 0
0 0 0 0 0 0 0 0 0 0 0 0 0 0 0 0 0 0 0 0 0 0 0 0 0 0 0 0 0 0 0 0 0 0 0 0 0 0
0 0 0 0 0 0 0 0 0 0 0 0 0 0 0 0 0 0 0 0 0 0 0 0 0 0 0 0 0 0 0 0 0 0 0 0 0 0
0 0 0 0 0 0 0 0 0 0 0 0 0 0 0 0 0 0 0 0 0 0 0 0 0 0 0 0 0 0 0 0 0 0 0 0 0 0
0 0 0 0 0 0 0 0 0 0 0 0 0 0 0 0 0 0 0 0 0 0 0 0 0 0 0 0 0 0 0 0 0 0 0 0 0 0
0 0 0 0 0 0 0 0 0 0 0 0 0 0 0 0 0 0 0 0 0 0 0 0 0 0 0 0 0 0 0 0 0 0 0 0 0 0
0 0 0 0 0 0 0 0 0 0 0 0 0 0 0 0 0 0 0 0 0 0 0 0 0 0 0 0 0 0 0 0 0 0 0 0 0 0

GFSNE_con_mucape_147.txt.gz
CAPE
5 8 0 0 0 0 0 0 1 0 0 0 0 9 75 88 47 94 118 256 297 191 216 308 338 265 497 401 375 287 272 330 464 510 301 268 237 204
4 1 2 0 0 0 0 0 0 0 0 0 0 0 0 60 53 6 12 76 28 34 51 37 71 201 198 333 379 255 212 233 255 316 298 274 242 246
3 4 3 2 0 0 0 0 0 0 0 23 11 6 19 0 0 1 0 1 72 53 25 33 78 102 132 70 303 244 259 328 261 165 168 204 226 286
2 7 7 3 0 0 0 0 0 4 0 51 50 30 20 17 2 0 0 0 2 6 74 89 83 67 6 22 14 37 16 191 207 263 282 219 218 261
0 5 9 10 5 8 0 0 0 0 0 0 55 27 8 17 5 5 5 0 0 0 2 33 6 24 7 16 19 8 0 41 61 68 50 42 56 100
0 0 0 6 7 7 13 3 0 0 0 0 1 16 8 9 11 14 8 3 0 0 1 2 24 9 9 10 3 8 0 0 8 24 34 10 66 47
0 0 0 0 0 0 5 4 9 3 2 6 8 18 17 27 20 25 6 5 3 15 1 8 0 3 0 2 4 12 5 12 14 15 68 71 31 30
0 0 0 0 0 0 0 0 0 3 8 4 1 8 9 3 7 8 4 7 2 1 0 0 2 0 0 0 1 0 3 4 14 7 7 21 26 32
0 0 0 0 0 0 0 0 0 0 0 0 1 3 0 0 0 1 0 0 0 0 0 0 0 0 0 0 0 0 0 1 1 1 2 9 15 21
0 0 0 0 0 0 0 0 0 0 0 0 0 0 0 0 0 0 0 0 0 0 0 0 0 0 0 0 0 0 0 0 0 0 1 2 3 3
0 0 0 0 0 0 0 0 0 0 0 0 0 0 0 0 0 0 0 0 0 0 0 0 0 0 0 0 0 0 0 0 0 0 0 0 0 0
0 0 0 0 0 0 0 0 0 0 0 0 0 0 0 0 0 0 0 0 0 0 0 0 0 0 0 0 0 0 0 0 0 0 0 0 0 0
0 0 0 0 0 0 0 0 0 0 0 0 0 0 0 0 0 0 0 0 0 0 0 0 0 0 0 0 0 0 0 0 0 0 0 0 0 0
0 0 0 0 0 0 0 0 0 0 0 0 0 0 0 0 0 0 0 0 0 0 0 0 0 0 0 0 0 0 0 0 0 0 0 0 0 0
0 0 0 0 0 0 0 0 0 0 0 0 0 0 0 0 0 0 0 0 0 0 0 0 0 0 0 0 0 0 0 0 0 0 0 0 0 0
0 0 0 0 0 0 0 0 0 0 0 0 0 0 0 0 0 0 0 0 0 0 0 0 0 0 0 0 0 0 0 0 0 0 0 0 0 0
0 0 0 0 0 0 0 0 0 0 0 0 0 0 0 0 0 0 0 0 0 0 0 0 0 0 0 0 0 0 0 0 0 0 0 0 0 0
0 0 0 0 0 0 0 0 0 0 0 0 0 0 0 0 0 0 0 0 0 0 0 0 0 0 0 0 0 0 0 0 0 0 0 0 0 0
0 0 0 0 0 0 0 0 0 0 0 0 0 0 0 0 0 0 0 0 0 0 0 0 0 0 0 0 0 0 0 0 0 0 0 0 0 0
0 0 0 0 0 0 0 0 0 0 0 0 0 0 0 0 0 0 0 0 0 0 0 0 0 0 0 0 0 0 0 0 0 0 0 0 0 0
0 0 0 0 0 0 0 0 0 0 0 0 0 0 0 0 0 0 0 0 0 0 0 0 0 0 0 0 0 0 0 0 0 0 0 0 0 0
0 0 0 0 0 0 0 0 0 0 0 0 0 0 0 0 0 0 0 0 0 0 0 0 0 0 0 0 0 0 0 0 0 0 0 0 0 0
0 0 0 0 0 0 0 0 0 0 0 0 0 0 0 0 0 0 0 0 0 0 0 0 0 0 0 0 0 0 0 0 0 0 0 0 0 0